Time,TemperatureF,DewpointF,PressureIn,WindDirection,WindDirectionDegrees,WindSpeedMPH,WindSpeedGustMPH,Humidity,HourlyPrecipIn,Conditions,Clouds,dailyrainin,SoftwareType,DateUTC
2013-03-10 00:02:00,35.8,34.5,29.81,SSW,192,0.0,0.0,95,0.00,,,0.00,Wunderground v.1.15,2013-03-10 06:02:00,
2013-03-10 00:04:00,35.8,34.5,29.81,SSW,192,0.0,0.0,95,0.00,,,0.00,Wunderground v.1.15,2013-03-10 06:04:00,
2013-03-10 00:05:00,35.8,34.5,29.82,SSW,192,0.0,0.0,95,0.00,,,0.00,Wunderground v.1.15,2013-03-10 06:05:00,
2013-03-10 00:08:00,35.9,34.9,29.81,SSW,192,0.0,0.0,96,0.00,,,0.00,Wunderground v.1.15,2013-03-10 06:08:00,
2013-03-10 00:13:00,35.9,34.9,29.82,SSW,192,0.0,1.0,96,0.00,,,0.00,Wunderground v.1.15,2013-03-10 06:13:00,
2013-03-10 00:14:00,35.9,34.9,29.81,SSW,192,0.0,1.0,96,0.00,,,0.00,Wunderground v.1.15,2013-03-10 06:14:00,
2013-03-10 00:19:00,35.8,34.8,29.81,SSW,192,0.0,0.0,96,0.00,,,0.00,Wunderground v.1.15,2013-03-10 06:19:00,
2013-03-10 00:20:00,35.9,34.6,29.81,SSW,192,0.0,0.0,95,0.00,,,0.00,Wunderground v.1.15,2013-03-10 06:20:00,
2013-03-10 00:21:00,35.8,34.8,29.81,SSW,192,0.0,0.0,96,0.00,,,0.00,Wunderground v.1.15,2013-03-10 06:21:00,
2013-03-10 00:22:00,35.8,34.5,29.81,SSW,192,0.0,0.0,95,0.00,,,0.00,Wunderground v.1.15,2013-03-10 06:22:00,
2013-03-10 00:25:00,35.7,34.0,29.80,South,190,0.0,-999.0,95,-99.99,,,0.00,weatherlink.com 1.10,2013-03-10 06:25:00,
2013-03-10 00:27:00,35.6,34.3,29.81,South,187,0.0,6.0,95,0.00,,,0.00,Wunderground v.1.15,2013-03-10 06:27:00,
2013-03-10 00:28:00,35.6,34.3,29.80,South,187,0.0,6.0,95,0.00,,,0.00,Wunderground v.1.15,2013-03-10 06:28:00,
2013-03-10 00:29:00,35.6,34.3,29.81,South,187,0.0,6.0,95,0.00,,,0.00,Wunderground v.1.15,2013-03-10 06:29:00,
2013-03-10 00:33:00,35.6,34.3,29.80,South,182,0.0,6.0,95,0.00,,,0.00,Wunderground v.1.15,2013-03-10 06:33:00,
2013-03-10 00:35:00,35.6,34.3,29.80,SSE,163,0.0,6.0,95,0.00,,,0.00,Wunderground v.1.15,2013-03-10 06:35:00,
2013-03-10 00:36:00,35.7,34.4,29.81,SSE,168,1.0,6.0,95,0.00,,,0.00,Wunderground v.1.15,2013-03-10 06:36:00,
2013-03-10 00:37:00,35.7,34.7,29.80,South,180,1.0,6.0,96,0.00,,,0.00,Wunderground v.1.15,2013-03-10 06:37:00,
2013-03-10 00:41:00,35.7,34.7,29.81,South,171,1.0,6.0,96,0.00,,,0.00,Wunderground v.1.15,2013-03-10 06:41:00,
2013-03-10 00:42:00,35.7,34.7,29.81,SE,142,2.0,6.0,96,0.00,,,0.00,Wunderground v.1.15,2013-03-10 06:42:00,
2013-03-10 00:44:00,35.7,34.7,29.81,South,186,2.0,6.0,96,0.00,,,0.00,Wunderground v.1.15,2013-03-10 06:44:00,
2013-03-10 00:47:00,35.8,34.8,29.81,SSW,194,1.0,6.0,96,0.00,,,0.00,Wunderground v.1.15,2013-03-10 06:47:00,
2013-03-10 00:50:00,35.8,34.8,29.82,SSW,194,1.0,6.0,96,0.00,,,0.00,Wunderground v.1.15,2013-03-10 06:50:00,
2013-03-10 00:55:00,35.9,35.0,29.82,SSW,193,0.0,-999.0,96,-99.99,,,0.00,weatherlink.com 1.10,2013-03-10 06:55:00,
2013-03-10 00:56:00,35.9,34.9,29.82,SSW,193,0.0,0.0,96,0.00,,,0.00,Wunderground v.1.15,2013-03-10 06:56:00,
2013-03-10 01:01:00,36.0,35.0,29.82,SSW,194,0.0,1.0,96,0.00,,,0.00,Wunderground v.1.15,2013-03-10 07:01:00,
2013-03-10 01:02:00,36.0,35.0,29.82,SSW,194,0.0,1.0,96,0.00,,,0.00,Wunderground v.1.15,2013-03-10 07:02:00,
2013-03-10 01:06:00,36.0,35.0,29.82,SSW,194,0.0,0.0,96,0.00,,,0.00,Wunderground v.1.15,2013-03-10 07:06:00,
2013-03-10 01:09:00,36.0,35.0,29.82,SSW,194,0.0,0.0,96,0.00,,,0.00,Wunderground v.1.15,2013-03-10 07:09:00,
2013-03-10 01:10:00,36.0,35.0,29.82,SSW,194,0.0,0.0,96,0.00,,,0.00,Wunderground v.1.15,2013-03-10 07:10:00,
2013-03-10 01:11:00,36.0,35.0,29.82,SSW,194,0.0,-999.0,96,-99.99,,,0.00,weatherlink.com 1.10,2013-03-10 07:11:00,
2013-03-10 01:14:00,36.1,35.1,29.82,SSW,194,0.0,0.0,96,0.00,,,0.00,Wunderground v.1.15,2013-03-10 07:14:00,
2013-03-10 01:16:00,36.1,35.1,29.82,SSW,194,0.0,0.0,96,0.00,,,0.00,Wunderground v.1.15,2013-03-10 07:16:00,
2013-03-10 01:18:00,36.1,35.1,29.81,SSW,194,0.0,0.0,96,0.00,,,0.00,Wunderground v.1.15,2013-03-10 07:18:00,
2013-03-10 01:21:00,36.2,35.2,29.82,SSW,194,0.0,0.0,96,0.00,,,0.00,Wunderground v.1.15,2013-03-10 07:21:00,
2013-03-10 01:24:00,36.3,35.3,29.81,SSW,192,0.0,1.0,96,0.00,,,0.00,Wunderground v.1.15,2013-03-10 07:24:00,
2013-03-10 01:28:00,36.3,35.3,29.81,SSW,192,0.0,6.0,96,0.00,,,0.00,Wunderground v.1.15,2013-03-10 07:28:00,
2013-03-10 01:30:00,36.2,35.2,29.81,SSW,192,0.0,6.0,96,0.00,,,0.00,Wunderground v.1.15,2013-03-10 07:30:00,
2013-03-10 01:31:00,36.2,35.2,29.81,SSW,192,0.0,6.0,96,0.00,,,0.00,Wunderground v.1.15,2013-03-10 07:31:00,
2013-03-10 01:36:00,36.2,35.2,29.81,SSW,192,0.0,6.0,96,0.00,,,0.00,Wunderground v.1.15,2013-03-10 07:36:00,
2013-03-10 01:37:00,36.2,35.2,29.81,SSW,192,0.0,6.0,96,0.00,,,0.00,Wunderground v.1.15,2013-03-10 07:37:00,
2013-03-10 01:41:00,36.2,35.2,29.81,SSW,192,0.0,6.0,96,0.00,,,0.00,Wunderground v.1.15,2013-03-10 07:41:00,
2013-03-10 01:42:00,36.2,35.2,29.81,SSW,192,0.0,6.0,96,0.00,,,0.00,Wunderground v.1.15,2013-03-10 07:42:00,
2013-03-10 01:44:00,36.2,35.2,29.81,SSW,192,0.0,6.0,96,0.00,,,0.00,Wunderground v.1.15,2013-03-10 07:44:00,
2013-03-10 01:46:00,36.2,35.2,29.81,SSW,192,0.0,6.0,96,0.00,,,0.00,Wunderground v.1.15,2013-03-10 07:46:00,
2013-03-10 01:51:00,36.2,35.2,29.81,SSW,192,0.0,6.0,96,0.00,,,0.00,Wunderground v.1.15,2013-03-10 07:51:00,
2013-03-10 01:52:00,36.2,35.2,29.81,SSW,192,0.0,6.0,96,0.00,,,0.00,Wunderground v.1.15,2013-03-10 07:52:00,
2013-03-10 01:54:00,36.2,35.2,29.81,SSW,192,0.0,6.0,96,0.00,,,0.00,Wunderground v.1.15,2013-03-10 07:54:00,
2013-03-10 01:56:00,36.2,35.2,29.81,SSW,192,0.0,1.0,96,0.00,,,0.00,Wunderground v.1.15,2013-03-10 07:56:00,
2013-03-10 01:57:00,36.2,35.0,29.80,South,190,0.0,-999.0,96,-99.99,,,0.00,weatherlink.com 1.10,2013-03-10 07:57:00,
2013-03-10 03:00:00,36.2,35.2,29.80,SSE,163,0.0,2.0,96,0.00,,,0.00,Wunderground v.1.15,2013-03-10 08:00:00,
2013-03-10 03:02:00,36.2,35.2,29.80,SSE,162,0.0,2.0,96,0.00,,,0.00,Wunderground v.1.15,2013-03-10 08:02:00,
2013-03-10 03:05:00,36.2,35.2,29.80,SSE,157,0.0,2.0,96,0.00,,,0.00,Wunderground v.1.15,2013-03-10 08:05:00,
2013-03-10 03:07:00,36.2,35.2,29.80,SSE,157,0.0,0.0,96,0.00,,,0.00,Wunderground v.1.15,2013-03-10 08:07:00,
2013-03-10 03:08:00,36.2,35.2,29.80,SE,146,0.0,1.0,96,0.00,,,0.00,Wunderground v.1.15,2013-03-10 08:08:00,
2013-03-10 03:10:00,36.3,35.3,29.80,SE,146,0.0,1.0,96,0.00,,,0.00,Wunderground v.1.15,2013-03-10 08:10:00,
2013-03-10 03:11:00,36.3,35.0,29.80,SE,146,0.0,-999.0,96,-99.99,,,0.00,weatherlink.com 1.10,2013-03-10 08:11:00,
2013-03-10 03:12:00,36.4,35.4,29.80,SE,146,0.0,1.0,96,0.00,,,0.00,Wunderground v.1.15,2013-03-10 08:12:00,
2013-03-10 03:14:00,36.5,35.5,29.80,SE,146,0.0,1.0,96,0.00,,,0.00,Wunderground v.1.15,2013-03-10 08:14:00,
2013-03-10 03:16:00,36.5,35.5,29.80,SE,146,0.0,0.0,96,0.00,,,0.00,Wunderground v.1.15,2013-03-10 08:16:00,
2013-03-10 03:17:00,36.5,35.5,29.79,SE,146,0.0,0.0,96,0.00,,,0.00,Wunderground v.1.15,2013-03-10 08:17:00,
2013-03-10 03:20:00,36.4,35.4,29.80,SE,146,0.0,0.0,96,0.00,,,0.00,Wunderground v.1.15,2013-03-10 08:20:00,
2013-03-10 03:23:00,36.4,35.4,29.80,SE,146,0.0,0.0,96,0.00,,,0.00,Wunderground v.1.15,2013-03-10 08:23:00,
2013-03-10 03:26:00,36.4,35.4,29.80,SE,146,0.0,0.0,96,0.00,,,0.00,Wunderground v.1.15,2013-03-10 08:26:00,
2013-03-10 03:27:00,36.4,35.4,29.80,SE,146,0.0,2.0,96,0.00,,,0.00,Wunderground v.1.15,2013-03-10 08:27:00,
2013-03-10 03:30:00,36.4,35.4,29.80,SE,143,0.0,3.0,96,0.00,,,0.00,Wunderground v.1.15,2013-03-10 08:30:00,
2013-03-10 03:31:00,36.4,35.4,29.80,SE,143,0.0,3.0,96,0.00,,,0.00,Wunderground v.1.15,2013-03-10 08:31:00,
2013-03-10 03:35:00,36.4,35.4,29.80,SE,142,0.0,3.0,96,0.00,,,0.00,Wunderground v.1.15,2013-03-10 08:35:00,
2013-03-10 03:36:00,36.4,35.4,29.80,SE,134,1.0,3.0,96,0.00,,,0.00,Wunderground v.1.15,2013-03-10 08:36:00,
2013-03-10 03:41:00,36.4,35.4,29.80,SE,134,0.0,3.0,96,0.00,,,0.00,Wunderground v.1.15,2013-03-10 08:41:00,
2013-03-10 03:42:00,36.4,35.4,29.80,SE,134,0.0,3.0,96,0.00,,,0.00,Wunderground v.1.15,2013-03-10 08:42:00,
2013-03-10 03:45:00,36.4,35.4,29.79,SE,134,0.0,3.0,96,0.00,,,0.00,Wunderground v.1.15,2013-03-10 08:45:00,
2013-03-10 03:47:00,36.4,35.4,29.79,SE,134,0.0,3.0,96,0.00,,,0.00,Wunderground v.1.15,2013-03-10 08:47:00,
2013-03-10 03:51:00,36.4,35.4,29.80,SE,134,0.0,3.0,96,0.00,,,0.00,Wunderground v.1.15,2013-03-10 08:51:00,
2013-03-10 03:53:00,36.5,35.5,29.80,SE,134,0.0,3.0,96,0.00,,,0.00,Wunderground v.1.15,2013-03-10 08:53:00,
2013-03-10 03:58:00,36.6,35.6,29.80,SE,134,0.0,0.0,96,0.00,,,0.00,Wunderground v.1.15,2013-03-10 08:58:00,
2013-03-10 03:59:00,36.6,35.6,29.80,SE,134,0.0,0.0,96,0.00,,,0.00,Wunderground v.1.15,2013-03-10 08:59:00,
2013-03-10 04:00:00,36.6,36.0,29.80,SE,134,0.0,-999.0,96,-99.99,,,0.00,weatherlink.com 1.10,2013-03-10 09:00:00,
2013-03-10 04:05:00,36.6,35.6,29.79,SE,134,0.0,0.0,96,0.00,,,0.00,Wunderground v.1.15,2013-03-10 09:05:00,
2013-03-10 04:06:00,36.6,35.6,29.79,SE,134,0.0,0.0,96,0.00,,,0.00,Wunderground v.1.15,2013-03-10 09:06:00,
2013-03-10 04:08:00,36.6,35.6,29.79,SE,134,0.0,0.0,96,0.00,,,0.00,Wunderground v.1.15,2013-03-10 09:08:00,
2013-03-10 04:12:00,36.6,35.6,29.79,SE,134,0.0,0.0,96,0.00,,,0.00,Wunderground v.1.15,2013-03-10 09:12:00,
2013-03-10 04:14:00,36.6,35.6,29.79,SE,134,0.0,0.0,96,0.00,,,0.00,Wunderground v.1.15,2013-03-10 09:14:00,
2013-03-10 04:18:00,36.6,35.6,29.79,SE,134,0.0,0.0,96,0.00,,,0.00,Wunderground v.1.15,2013-03-10 09:18:00,
2013-03-10 04:19:00,36.7,35.7,29.79,SE,134,0.0,0.0,96,0.00,,,0.00,Wunderground v.1.15,2013-03-10 09:19:00,
2013-03-10 04:21:00,36.7,35.7,29.79,SE,134,0.0,0.0,96,0.00,,,0.00,Wunderground v.1.15,2013-03-10 09:21:00,
2013-03-10 04:22:00,36.7,35.7,29.79,SE,134,0.0,0.0,96,0.00,,,0.00,Wunderground v.1.15,2013-03-10 09:22:00,
2013-03-10 04:27:00,36.8,36.0,29.79,SE,134,0.0,-999.0,96,-99.99,,,0.00,weatherlink.com 1.10,2013-03-10 09:27:00,
2013-03-10 04:30:00,36.5,35.5,29.79,SE,134,0.0,2.0,96,0.00,,,0.00,Wunderground v.1.15,2013-03-10 09:30:00,
2013-03-10 04:33:00,36.4,35.4,29.79,SE,134,0.0,2.0,96,0.00,,,0.00,Wunderground v.1.15,2013-03-10 09:33:00,
2013-03-10 04:38:00,36.4,35.4,29.78,ENE,65,1.0,3.0,96,0.00,,,0.00,Wunderground v.1.15,2013-03-10 09:38:00,
2013-03-10 04:40:00,36.4,35.4,29.78,ENE,65,1.0,3.0,96,0.00,,,0.00,Wunderground v.1.15,2013-03-10 09:40:00,
2013-03-10 04:41:00,36.4,35.0,29.78,ENE,60,0.0,-999.0,96,-99.99,,,0.00,weatherlink.com 1.10,2013-03-10 09:41:00,
2013-03-10 04:44:00,36.3,35.3,29.78,ENE,57,1.0,3.0,96,0.00,,,0.00,Wunderground v.1.15,2013-03-10 09:44:00,
2013-03-10 04:46:00,36.2,35.2,29.77,ENE,57,2.0,3.0,96,0.00,,,0.00,Wunderground v.1.15,2013-03-10 09:46:00,
2013-03-10 04:47:00,36.2,35.2,29.77,ENE,57,2.0,3.0,96,0.00,,,0.00,Wunderground v.1.15,2013-03-10 09:47:00,
2013-03-10 04:49:00,36.2,35.2,29.77,NE,48,2.0,4.0,96,0.00,,,0.00,Wunderground v.1.15,2013-03-10 09:49:00,
2013-03-10 04:54:00,36.0,35.0,29.77,NNE,32,3.0,4.0,96,0.00,,,0.00,Wunderground v.1.15,2013-03-10 09:54:00,
2013-03-10 04:56:00,36.0,35.0,29.77,NE,39,3.0,3.0,96,0.00,,,0.00,Wunderground v.1.15,2013-03-10 09:56:00,
2013-03-10 04:57:00,36.0,35.0,29.77,NE,42,3.0,-999.0,96,-99.99,,,0.00,weatherlink.com 1.10,2013-03-10 09:57:00,
2013-03-10 04:59:00,36.1,35.1,29.77,NE,43,2.0,3.0,96,0.00,,,0.00,Wunderground v.1.15,2013-03-10 09:59:00,
2013-03-10 05:03:00,36.1,35.1,29.77,NE,46,2.0,3.0,96,0.00,,,0.00,Wunderground v.1.15,2013-03-10 10:03:00,
2013-03-10 05:05:00,36.1,35.1,29.77,ENE,57,2.0,2.0,96,0.00,,,0.00,Wunderground v.1.15,2013-03-10 10:05:00,
2013-03-10 05:08:00,36.1,35.1,29.77,ENE,57,2.0,2.0,96,0.00,,,0.00,Wunderground v.1.15,2013-03-10 10:08:00,
2013-03-10 05:12:00,36.1,35.1,29.77,ENE,57,2.0,3.0,96,0.00,,,0.00,Wunderground v.1.15,2013-03-10 10:12:00,
2013-03-10 05:13:00,36.2,35.2,29.77,ENE,57,1.0,3.0,96,0.00,,,0.00,Wunderground v.1.15,2013-03-10 10:13:00,
2013-03-10 05:14:00,36.2,35.2,29.77,ENE,57,1.0,3.0,96,0.00,,,0.00,Wunderground v.1.15,2013-03-10 10:14:00,
2013-03-10 05:18:00,36.2,35.2,29.77,ENE,57,1.0,1.0,96,0.00,,,0.00,Wunderground v.1.15,2013-03-10 10:18:00,
2013-03-10 05:19:00,36.1,35.1,29.77,ENE,57,1.0,3.0,96,0.00,,,0.00,Wunderground v.1.15,2013-03-10 10:19:00,
2013-03-10 05:20:00,36.1,35.1,29.77,ENE,57,1.0,3.0,96,0.00,,,0.00,Wunderground v.1.15,2013-03-10 10:20:00,
2013-03-10 05:24:00,36.1,35.1,29.77,ENE,57,1.0,3.0,96,0.00,,,0.00,Wunderground v.1.15,2013-03-10 10:24:00,
2013-03-10 05:26:00,36.2,35.2,29.77,ENE,57,1.0,2.0,96,0.00,,,0.00,Wunderground v.1.15,2013-03-10 10:26:00,
2013-03-10 05:27:00,36.2,35.2,29.77,ENE,57,1.0,5.0,96,0.00,,,0.00,Wunderground v.1.15,2013-03-10 10:27:00,
2013-03-10 05:30:00,36.1,35.1,29.77,ENE,57,1.0,5.0,96,0.00,,,0.00,Wunderground v.1.15,2013-03-10 10:30:00,
2013-03-10 05:31:00,36.2,35.2,29.77,ENE,57,1.0,5.0,96,0.00,,,0.00,Wunderground v.1.15,2013-03-10 10:31:00,
2013-03-10 05:32:00,36.2,35.2,29.77,ENE,57,1.0,5.0,96,0.00,,,0.00,Wunderground v.1.15,2013-03-10 10:32:00,
2013-03-10 05:34:00,36.2,35.2,29.78,ENE,57,1.0,5.0,96,0.00,,,0.00,Wunderground v.1.15,2013-03-10 10:34:00,
2013-03-10 05:37:00,36.2,35.2,29.78,ENE,57,1.0,2.0,96,0.00,,,0.00,Wunderground v.1.15,2013-03-10 10:37:00,
2013-03-10 05:40:00,36.1,35.1,29.78,ENE,57,1.0,5.0,96,0.00,,,0.00,Wunderground v.1.15,2013-03-10 10:40:00,
2013-03-10 05:43:00,36.1,35.1,29.77,ENE,57,1.0,5.0,96,0.00,,,0.00,Wunderground v.1.15,2013-03-10 10:43:00,
2013-03-10 05:45:00,36.0,35.0,29.78,East,95,1.0,5.0,96,0.00,,,0.00,Wunderground v.1.15,2013-03-10 10:45:00,
2013-03-10 05:51:00,35.9,34.9,29.78,ESE,102,2.0,5.0,96,0.00,,,0.00,Wunderground v.1.15,2013-03-10 10:51:00,
2013-03-10 05:52:00,35.8,34.8,29.78,ESE,113,2.0,5.0,96,0.00,,,0.00,Wunderground v.1.15,2013-03-10 10:52:00,
2013-03-10 05:54:00,35.7,34.7,29.79,ESE,113,2.0,5.0,96,0.00,,,0.00,Wunderground v.1.15,2013-03-10 10:54:00,
2013-03-10 05:58:00,35.7,34.7,29.79,ESE,115,1.0,2.0,96,0.00,,,0.00,Wunderground v.1.15,2013-03-10 10:58:00,
2013-03-10 05:59:00,35.7,34.7,29.79,ESE,115,1.0,4.0,96,0.00,,,0.00,Wunderground v.1.15,2013-03-10 10:59:00,
2013-03-10 06:00:00,35.7,34.7,29.79,ESE,116,1.0,4.0,96,0.00,,,0.00,Wunderground v.1.15,2013-03-10 11:00:00,
2013-03-10 06:03:00,35.7,34.7,29.79,ESE,116,1.0,4.0,96,0.00,,,0.00,Wunderground v.1.15,2013-03-10 11:03:00,
2013-03-10 06:06:00,35.8,34.8,29.78,ESE,116,1.0,2.0,96,0.00,,,0.00,Wunderground v.1.15,2013-03-10 11:06:00,
2013-03-10 06:07:00,35.8,34.8,29.78,ESE,116,2.0,2.0,96,0.00,,,0.00,Wunderground v.1.15,2013-03-10 11:07:00,
2013-03-10 06:10:00,35.9,34.9,29.77,ESE,115,2.0,5.0,96,0.00,,,0.00,Wunderground v.1.15,2013-03-10 11:10:00,
2013-03-10 06:12:00,35.9,35.0,29.77,ESE,113,1.0,-999.0,96,-99.99,,,0.00,weatherlink.com 1.10,2013-03-10 11:12:00,
2013-03-10 06:14:00,35.9,34.9,29.77,ESE,113,2.0,5.0,96,0.00,,,0.00,Wunderground v.1.15,2013-03-10 11:14:00,
2013-03-10 06:20:00,36.0,35.0,29.76,ESE,113,2.0,4.0,96,0.00,,,0.00,Wunderground v.1.15,2013-03-10 11:20:00,
2013-03-10 06:22:00,35.9,34.9,29.76,ESE,113,2.0,4.0,96,0.00,,,0.00,Wunderground v.1.15,2013-03-10 11:22:00,
2013-03-10 06:26:00,35.9,34.9,29.75,East,101,2.0,5.0,96,0.00,,,0.00,Wunderground v.1.15,2013-03-10 11:26:00,
2013-03-10 06:29:00,35.9,34.9,29.74,East,101,2.0,5.0,96,0.00,,,0.00,Wunderground v.1.15,2013-03-10 11:29:00,
2013-03-10 06:31:00,35.9,34.9,29.73,NE,51,2.0,5.0,96,0.00,,,0.00,Wunderground v.1.15,2013-03-10 11:31:00,
2013-03-10 06:33:00,35.9,34.9,29.72,NE,49,3.0,7.0,96,0.00,,,0.00,Wunderground v.1.15,2013-03-10 11:33:00,
2013-03-10 06:36:00,35.8,34.8,29.70,East,86,4.0,6.0,96,0.00,,,0.00,Wunderground v.1.15,2013-03-10 11:36:00,
2013-03-10 06:41:00,35.7,34.7,29.70,WSW,255,4.0,6.0,96,0.00,,,0.00,Wunderground v.1.15,2013-03-10 11:41:00,
2013-03-10 06:42:00,35.8,35.0,29.75,WSW,255,0.0,-999.0,96,-99.99,,,0.00,weatherlink.com 1.10,2013-03-10 11:42:00,
2013-03-10 06:46:00,35.9,34.9,29.74,NE,50,2.0,5.0,96,0.00,,,0.00,Wunderground v.1.15,2013-03-10 11:46:00,
2013-03-10 06:49:00,36.0,35.0,29.75,NE,50,1.0,5.0,96,0.00,,,0.00,Wunderground v.1.15,2013-03-10 11:49:00,
2013-03-10 06:50:00,36.1,35.1,29.74,NE,50,1.0,5.0,96,0.00,,,0.00,Wunderground v.1.15,2013-03-10 11:50:00,
2013-03-10 06:52:00,36.1,35.1,29.73,ENE,67,1.0,5.0,96,0.00,,,0.00,Wunderground v.1.15,2013-03-10 11:52:00,
2013-03-10 06:55:00,36.1,35.1,29.74,ENE,65,1.0,5.0,96,0.00,,,0.00,Wunderground v.1.15,2013-03-10 11:55:00,
2013-03-10 06:56:00,36.1,35.1,29.75,ENE,65,1.0,2.0,96,0.00,,,0.00,Wunderground v.1.15,2013-03-10 11:56:00,
2013-03-10 06:59:00,36.0,35.0,29.76,NW,311,2.0,5.0,96,0.00,,,0.00,Wunderground v.1.15,2013-03-10 11:59:00,
2013-03-10 07:01:00,36.0,35.0,29.76,NW,311,2.0,5.0,96,0.00,,,0.00,Wunderground v.1.15,2013-03-10 12:01:00,
2013-03-10 07:02:00,36.0,35.0,29.76,NW,311,2.0,5.0,96,0.00,,,0.00,Wunderground v.1.15,2013-03-10 12:02:00,
2013-03-10 07:06:00,36.0,35.0,29.76,NW,312,2.0,2.0,96,0.00,,,0.00,Wunderground v.1.15,2013-03-10 12:06:00,
2013-03-10 07:08:00,36.0,35.0,29.77,NW,312,1.0,2.0,96,0.00,,,0.00,Wunderground v.1.15,2013-03-10 12:08:00,
2013-03-10 07:09:00,36.0,35.0,29.77,NW,312,1.0,2.0,96,0.00,,,0.00,Wunderground v.1.15,2013-03-10 12:09:00,
2013-03-10 07:12:00,36.1,35.0,29.77,NW,312,3.0,-999.0,96,-99.99,,,0.00,weatherlink.com 1.10,2013-03-10 12:12:00,
2013-03-10 07:16:00,36.1,35.1,29.78,NW,312,1.0,1.0,96,0.00,,,0.00,Wunderground v.1.15,2013-03-10 12:16:00,
2013-03-10 07:17:00,36.1,35.1,29.77,NW,312,0.0,1.0,96,0.00,,,0.00,Wunderground v.1.15,2013-03-10 12:17:00,
2013-03-10 07:19:00,36.1,35.1,29.78,NW,312,1.0,2.0,96,0.00,,,0.00,Wunderground v.1.15,2013-03-10 12:19:00,
2013-03-10 07:22:00,36.1,35.1,29.78,NW,312,1.0,2.0,96,0.00,,,0.00,Wunderground v.1.15,2013-03-10 12:22:00,
2013-03-10 07:27:00,36.2,35.0,29.78,NW,312,0.0,-999.0,96,-99.99,,,0.00,weatherlink.com 1.10,2013-03-10 12:27:00,
2013-03-10 07:28:00,36.2,35.2,29.78,NW,312,1.0,11.0,96,0.00,,,0.00,Wunderground v.1.15,2013-03-10 12:28:00,
2013-03-10 07:30:00,36.1,35.1,29.78,NW,312,1.0,11.0,96,0.00,,,0.00,Wunderground v.1.15,2013-03-10 12:30:00,
2013-03-10 07:33:00,36.0,35.0,29.78,NW,312,1.0,11.0,96,0.00,,,0.00,Wunderground v.1.15,2013-03-10 12:33:00,
2013-03-10 07:36:00,36.0,35.0,29.78,NW,312,1.0,1.0,96,0.00,,,0.00,Wunderground v.1.15,2013-03-10 12:36:00,
2013-03-10 07:41:00,35.9,34.9,29.77,NNE,19,1.0,11.0,96,0.00,,,0.00,Wunderground v.1.15,2013-03-10 12:41:00,
2013-03-10 07:42:00,35.8,34.8,29.77,NNE,19,1.0,11.0,96,0.00,,,0.00,Wunderground v.1.15,2013-03-10 12:42:00,
2013-03-10 07:43:00,35.8,35.0,29.77,ENE,76,3.0,-999.0,96,-99.99,,,0.00,weatherlink.com 1.10,2013-03-10 12:43:00,
2013-03-10 07:48:00,35.7,34.7,29.78,East,92,2.0,11.0,96,0.00,,,0.00,Wunderground v.1.15,2013-03-10 12:48:00,
2013-03-10 07:49:00,35.7,34.7,29.79,East,92,2.0,11.0,96,0.00,,,0.00,Wunderground v.1.15,2013-03-10 12:49:00,
2013-03-10 07:51:00,35.7,34.7,29.79,East,92,2.0,11.0,96,0.00,,,0.00,Wunderground v.1.15,2013-03-10 12:51:00,
2013-03-10 07:52:00,35.8,34.8,29.79,East,94,2.0,11.0,96,0.00,,,0.00,Wunderground v.1.15,2013-03-10 12:52:00,
2013-03-10 07:56:00,35.8,34.8,29.79,East,94,1.0,1.0,96,0.00,,,0.00,Wunderground v.1.15,2013-03-10 12:56:00,
2013-03-10 07:57:00,35.9,35.0,29.79,East,94,1.0,-999.0,96,-99.99,,,0.00,weatherlink.com 1.10,2013-03-10 12:57:00,
2013-03-10 08:00:00,35.9,34.9,29.78,East,94,1.0,2.0,96,0.00,,,0.00,Wunderground v.1.15,2013-03-10 13:00:00,
2013-03-10 08:01:00,35.9,34.9,29.78,East,94,1.0,2.0,96,0.00,,,0.00,Wunderground v.1.15,2013-03-10 13:01:00,
2013-03-10 08:03:00,35.6,34.6,29.77,East,94,1.0,2.0,96,0.00,,,0.00,Wunderground v.1.15,2013-03-10 13:03:00,
2013-03-10 08:05:00,35.5,34.5,29.78,East,94,1.0,2.0,96,0.00,,,0.00,Wunderground v.1.15,2013-03-10 13:05:00,
2013-03-10 08:09:00,35.6,34.6,29.78,NNE,26,2.0,4.0,96,0.00,,,0.00,Wunderground v.1.15,2013-03-10 13:09:00,
2013-03-10 08:10:00,35.6,34.6,29.78,NNE,26,2.0,4.0,96,0.00,,,0.00,Wunderground v.1.15,2013-03-10 13:10:00,
2013-03-10 08:11:00,35.6,34.6,29.79,NNE,26,2.0,4.0,96,0.00,,,0.00,Wunderground v.1.15,2013-03-10 13:11:00,
2013-03-10 08:14:00,35.7,34.7,29.79,NNE,26,1.0,4.0,96,0.00,,,0.00,Wunderground v.1.15,2013-03-10 13:14:00,
2013-03-10 08:16:00,35.8,34.8,29.79,NNE,26,1.0,1.0,96,0.00,,,0.00,Wunderground v.1.15,2013-03-10 13:16:00,
2013-03-10 08:17:00,35.8,34.8,29.79,NNE,26,1.0,1.0,96,0.00,,,0.00,Wunderground v.1.15,2013-03-10 13:17:00,
2013-03-10 08:20:00,35.7,34.7,29.79,NNE,26,1.0,2.0,96,0.00,,,0.00,Wunderground v.1.15,2013-03-10 13:20:00,
2013-03-10 08:25:00,35.8,34.8,29.80,NNE,26,1.0,1.0,96,0.00,,,0.00,Wunderground v.1.15,2013-03-10 13:25:00,
2013-03-10 08:26:00,35.9,34.9,29.80,NNE,26,1.0,4.0,96,0.00,,,0.00,Wunderground v.1.15,2013-03-10 13:26:00,
2013-03-10 08:27:00,36.0,35.0,29.80,NNE,26,0.0,-999.0,96,-99.99,,,0.00,weatherlink.com 1.10,2013-03-10 13:27:00,
2013-03-10 08:31:00,36.1,35.1,29.80,NNE,26,0.0,4.0,96,0.00,,,0.00,Wunderground v.1.15,2013-03-10 13:31:00,
2013-03-10 08:33:00,35.9,34.9,29.81,NNE,26,0.0,4.0,96,0.00,,,0.00,Wunderground v.1.15,2013-03-10 13:33:00,
2013-03-10 08:36:00,36.0,35.0,29.81,NNE,26,0.0,4.0,96,0.00,,,0.00,Wunderground v.1.15,2013-03-10 13:36:00,
2013-03-10 08:37:00,36.0,35.0,29.81,NNE,26,0.0,4.0,96,0.00,,,0.00,Wunderground v.1.15,2013-03-10 13:37:00,
2013-03-10 08:39:00,36.0,35.0,29.81,NNE,26,0.0,4.0,96,0.00,,,0.00,Wunderground v.1.15,2013-03-10 13:39:00,
2013-03-10 08:41:00,36.1,35.1,29.82,NNE,26,0.0,4.0,96,0.00,,,0.00,Wunderground v.1.15,2013-03-10 13:41:00,
2013-03-10 08:44:00,36.1,35.1,29.82,NNE,26,1.0,4.0,96,0.00,,,0.00,Wunderground v.1.15,2013-03-10 13:44:00,
2013-03-10 08:47:00,36.0,35.0,29.82,NNE,26,1.0,4.0,96,0.00,,,0.00,Wunderground v.1.15,2013-03-10 13:47:00,
2013-03-10 08:48:00,35.9,34.9,29.82,NNE,26,1.0,4.0,96,0.00,,,0.00,Wunderground v.1.15,2013-03-10 13:48:00,
2013-03-10 08:50:00,35.7,34.7,29.82,NNE,26,1.0,4.0,96,0.00,,,0.00,Wunderground v.1.15,2013-03-10 13:50:00,
2013-03-10 08:54:00,35.6,34.6,29.82,NNE,26,2.0,4.0,96,0.00,,,0.00,Wunderground v.1.15,2013-03-10 13:54:00,
2013-03-10 08:56:00,35.6,34.6,29.82,NW,308,1.0,1.0,96,0.00,,,0.00,Wunderground v.1.15,2013-03-10 13:56:00,
2013-03-10 08:59:00,35.5,34.5,29.83,NW,308,1.0,1.0,96,0.00,,,0.00,Wunderground v.1.15,2013-03-10 13:59:00,
2013-03-10 09:02:00,35.6,34.6,29.84,NW,308,1.0,1.0,96,0.00,,,0.00,Wunderground v.1.15,2013-03-10 14:02:00,
2013-03-10 09:03:00,35.6,34.6,29.84,NW,312,1.0,2.0,96,0.00,,,0.00,Wunderground v.1.15,2013-03-10 14:03:00,
2013-03-10 09:05:00,35.8,34.8,29.84,NW,312,1.0,1.0,96,0.00,,,0.00,Wunderground v.1.15,2013-03-10 14:05:00,
2013-03-10 09:07:00,35.8,34.8,29.83,NW,312,1.0,1.0,96,0.00,,,0.00,Wunderground v.1.15,2013-03-10 14:07:00,
2013-03-10 09:10:00,35.8,34.8,29.83,NNW,331,1.0,3.0,96,0.00,,,0.00,Wunderground v.1.15,2013-03-10 14:10:00,
2013-03-10 09:11:00,35.7,34.7,29.83,NNW,330,1.0,5.0,96,0.00,,,0.00,Wunderground v.1.15,2013-03-10 14:11:00,
2013-03-10 09:15:00,35.6,35.0,29.83,NNW,330,1.0,-999.0,96,-99.99,,,0.00,weatherlink.com 1.10,2013-03-10 14:15:00,
2013-03-10 09:17:00,35.6,34.6,29.83,NNW,330,2.0,2.0,96,0.00,,,0.00,Wunderground v.1.15,2013-03-10 14:17:00,
2013-03-10 09:19:00,35.6,34.6,29.83,NNW,330,2.0,2.0,96,0.00,,,0.00,Wunderground v.1.15,2013-03-10 14:19:00,
2013-03-10 09:22:00,35.7,34.7,29.83,NNW,330,2.0,3.0,96,0.00,,,0.00,Wunderground v.1.15,2013-03-10 14:22:00,
2013-03-10 09:23:00,35.7,34.7,29.83,NNW,330,2.0,3.0,96,0.00,,,0.00,Wunderground v.1.15,2013-03-10 14:23:00,
2013-03-10 09:26:00,35.7,34.7,29.83,NNW,331,2.0,3.0,96,0.00,,,0.00,Wunderground v.1.15,2013-03-10 14:26:00,
2013-03-10 09:28:00,35.8,35.0,29.84,NNW,331,2.0,-999.0,96,-99.99,,,0.00,weatherlink.com 1.10,2013-03-10 14:28:00,
2013-03-10 09:29:00,35.8,34.8,29.84,NNW,329,2.0,3.0,96,0.00,,,0.00,Wunderground v.1.15,2013-03-10 14:29:00,
2013-03-10 09:33:00,35.9,34.9,29.84,NNW,327,2.0,4.0,96,0.00,,,0.00,Wunderground v.1.15,2013-03-10 14:33:00,
2013-03-10 09:35:00,35.9,34.9,29.84,NNW,328,2.0,2.0,96,0.00,,,0.00,Wunderground v.1.15,2013-03-10 14:35:00,
2013-03-10 09:36:00,35.9,34.9,29.84,NNW,328,2.0,3.0,96,0.00,,,0.00,Wunderground v.1.15,2013-03-10 14:36:00,
2013-03-10 09:37:00,35.9,34.9,29.84,NNW,328,2.0,3.0,96,0.00,,,0.00,Wunderground v.1.15,2013-03-10 14:37:00,
2013-03-10 09:41:00,36.0,35.0,29.84,NNW,328,1.0,3.0,96,0.00,,,0.00,Wunderground v.1.15,2013-03-10 14:41:00,
2013-03-10 09:43:00,36.1,35.1,29.84,NNW,328,1.0,3.0,96,0.00,,,0.00,Wunderground v.1.15,2013-03-10 14:43:00,
2013-03-10 09:47:00,36.1,35.1,29.84,NNW,328,1.0,3.0,96,0.00,,,0.00,Wunderground v.1.15,2013-03-10 14:47:00,
2013-03-10 09:49:00,36.1,35.1,29.84,NNW,328,1.0,3.0,96,0.00,,,0.00,Wunderground v.1.15,2013-03-10 14:49:00,
2013-03-10 09:50:00,36.1,35.1,29.84,NNW,328,1.0,3.0,96,0.00,,,0.00,Wunderground v.1.15,2013-03-10 14:50:00,
2013-03-10 09:51:00,36.1,35.1,29.84,NNW,328,1.0,3.0,96,0.00,,,0.00,Wunderground v.1.15,2013-03-10 14:51:00,
2013-03-10 09:54:00,36.2,35.2,29.84,NNW,328,1.0,3.0,96,0.00,,,0.00,Wunderground v.1.15,2013-03-10 14:54:00,
2013-03-10 09:57:00,36.2,35.2,29.84,NNW,328,1.0,1.0,96,0.00,,,0.00,Wunderground v.1.15,2013-03-10 14:57:00,
2013-03-10 09:58:00,36.3,35.0,29.84,NNW,328,0.0,-999.0,96,-99.99,,,0.00,weatherlink.com 1.10,2013-03-10 14:58:00,
2013-03-10 10:03:00,36.5,35.5,29.84,NNW,328,0.0,2.0,96,0.00,,,0.00,Wunderground v.1.15,2013-03-10 15:03:00,
2013-03-10 10:06:00,36.7,35.7,29.84,NNW,328,1.0,1.0,96,0.00,,,0.00,Wunderground v.1.15,2013-03-10 15:06:00,
2013-03-10 10:07:00,36.7,35.7,29.84,NNW,328,0.0,2.0,96,0.00,,,0.00,Wunderground v.1.15,2013-03-10 15:07:00,
2013-03-10 10:09:00,36.6,35.6,29.84,NNW,328,1.0,2.0,96,0.00,,,0.00,Wunderground v.1.15,2013-03-10 15:09:00,
2013-03-10 10:11:00,36.5,35.5,29.83,NNW,328,1.0,3.0,96,0.00,,,0.00,Wunderground v.1.15,2013-03-10 15:11:00,
2013-03-10 10:13:00,36.5,35.5,29.83,NNW,328,1.0,3.0,96,0.00,,,0.00,Wunderground v.1.15,2013-03-10 15:13:00,
2013-03-10 10:15:00,36.4,35.0,29.83,NNW,328,2.0,-999.0,96,-99.99,,,0.00,weatherlink.com 1.10,2013-03-10 15:15:00,
2013-03-10 10:18:00,36.4,35.4,29.83,NNE,16,2.0,6.0,96,0.00,,,0.00,Wunderground v.1.15,2013-03-10 15:18:00,
2013-03-10 10:20:00,36.5,35.5,29.83,North,5,2.0,6.0,96,0.00,,,0.00,Wunderground v.1.15,2013-03-10 15:20:00,
2013-03-10 10:22:00,36.6,35.6,29.83,NW,325,3.0,6.0,96,0.00,,,0.00,Wunderground v.1.15,2013-03-10 15:22:00,
2013-03-10 10:24:00,36.6,35.6,29.83,NW,321,3.0,6.0,96,0.00,,,0.00,Wunderground v.1.15,2013-03-10 15:24:00,
2013-03-10 10:27:00,36.6,35.6,29.83,NW,321,3.0,6.0,96,0.00,,,0.00,Wunderground v.1.15,2013-03-10 15:27:00,
2013-03-10 10:28:00,36.6,35.6,29.83,NW,323,3.0,6.0,96,0.00,,,0.00,Wunderground v.1.15,2013-03-10 15:28:00,
2013-03-10 10:34:00,36.9,35.9,29.83,North,5,3.0,6.0,96,0.00,,,0.00,Wunderground v.1.15,2013-03-10 15:34:00,
2013-03-10 10:36:00,36.9,35.9,29.83,NNW,343,4.0,6.0,96,0.00,,,0.00,Wunderground v.1.15,2013-03-10 15:36:00,
2013-03-10 10:40:00,37.1,36.1,29.83,North,11,4.0,7.0,96,0.00,,,0.00,Wunderground v.1.15,2013-03-10 15:40:00,
2013-03-10 10:42:00,37.1,36.1,29.84,NW,306,5.0,7.0,96,0.00,,,0.00,Wunderground v.1.15,2013-03-10 15:42:00,
2013-03-10 10:43:00,37.2,36.0,29.84,WNW,296,9.0,-999.0,96,-99.99,,,0.00,weatherlink.com 1.10,2013-03-10 15:43:00,
2013-03-10 10:44:00,37.2,36.2,29.84,NNW,336,5.0,7.0,96,0.00,,,0.00,Wunderground v.1.15,2013-03-10 15:44:00,
2013-03-10 10:45:00,37.2,36.2,29.83,NW,319,5.0,5.0,96,0.00,,,0.00,Wunderground v.1.15,2013-03-10 15:45:00,
2013-03-10 10:49:00,37.3,36.3,29.83,NNE,19,5.0,6.0,96,0.00,,,0.00,Wunderground v.1.15,2013-03-10 15:49:00,
2013-03-10 10:52:00,37.3,36.3,29.83,NNW,332,5.0,11.0,96,0.00,,,0.00,Wunderground v.1.15,2013-03-10 15:52:00,
2013-03-10 10:54:00,37.3,36.3,29.83,NNW,333,6.0,11.0,96,0.00,,,0.00,Wunderground v.1.15,2013-03-10 15:54:00,
2013-03-10 10:56:00,37.3,36.3,29.84,North,355,6.0,6.0,96,0.00,,,0.00,Wunderground v.1.15,2013-03-10 15:56:00,
2013-03-10 10:58:00,37.3,36.3,29.83,NNW,332,5.0,7.0,96,0.00,,,0.00,Wunderground v.1.15,2013-03-10 15:58:00,
2013-03-10 11:02:00,37.4,36.4,29.84,North,9,5.0,8.0,96,0.00,,,0.00,Wunderground v.1.15,2013-03-10 16:02:00,
2013-03-10 11:03:00,37.4,36.4,29.84,NW,313,5.0,8.0,96,0.00,,,0.00,Wunderground v.1.15,2013-03-10 16:03:00,
2013-03-10 11:05:00,37.4,36.4,29.84,NW,325,5.0,5.0,96,0.00,,,0.00,Wunderground v.1.15,2013-03-10 16:05:00,
2013-03-10 11:11:00,37.6,36.6,29.85,NW,325,4.0,6.0,96,0.00,,,0.00,Wunderground v.1.15,2013-03-10 16:11:00,
2013-03-10 11:12:00,37.6,36.6,29.85,NE,42,4.0,6.0,96,0.00,,,0.00,Wunderground v.1.15,2013-03-10 16:12:00,
2013-03-10 11:13:00,37.6,36.6,29.85,WNW,302,4.0,6.0,96,0.00,,,0.00,Wunderground v.1.15,2013-03-10 16:13:00,
2013-03-10 11:16:00,37.7,36.7,29.85,North,360,4.0,8.0,96,0.00,,,0.00,Wunderground v.1.15,2013-03-10 16:16:00,
2013-03-10 11:20:00,37.6,36.6,29.85,NW,326,5.0,8.0,96,0.00,,,0.00,Wunderground v.1.15,2013-03-10 16:20:00,
2013-03-10 11:22:00,37.7,36.7,29.85,NW,307,5.0,8.0,96,0.00,,,0.00,Wunderground v.1.15,2013-03-10 16:22:00,
2013-03-10 11:26:00,37.5,36.5,29.85,NNE,26,5.0,11.0,96,0.00,,,0.00,Wunderground v.1.15,2013-03-10 16:26:00,
2013-03-10 11:27:00,37.5,36.5,29.85,NNW,348,4.0,11.0,96,0.00,,,0.00,Wunderground v.1.15,2013-03-10 16:27:00,
2013-03-10 11:28:00,37.5,37.0,29.85,NNW,336,2.0,-999.0,96,-99.99,,,0.00,weatherlink.com 1.10,2013-03-10 16:28:00,
2013-03-10 11:31:00,37.5,36.5,29.85,NNW,345,4.0,11.0,96,0.00,,,0.00,Wunderground v.1.15,2013-03-10 16:31:00,
2013-03-10 11:33:00,37.5,36.5,29.85,NW,321,4.0,11.0,96,0.00,,,0.00,Wunderground v.1.15,2013-03-10 16:33:00,
2013-03-10 11:36:00,37.5,36.5,29.85,North,5,3.0,11.0,96,0.00,,,0.00,Wunderground v.1.15,2013-03-10 16:36:00,
2013-03-10 11:38:00,37.6,36.6,29.85,NW,317,3.0,11.0,96,0.00,,,0.00,Wunderground v.1.15,2013-03-10 16:38:00,
2013-03-10 11:40:00,37.5,36.5,29.85,NW,324,4.0,11.0,96,0.00,,,0.00,Wunderground v.1.15,2013-03-10 16:40:00,
2013-03-10 11:41:00,37.5,36.5,29.85,NNW,334,4.0,11.0,96,0.00,,,0.00,Wunderground v.1.15,2013-03-10 16:41:00,
2013-03-10 11:42:00,37.5,36.5,29.85,NNW,340,4.0,11.0,96,0.00,,,0.00,Wunderground v.1.15,2013-03-10 16:42:00,
2013-03-10 11:46:00,37.5,36.5,29.85,North,5,5.0,5.0,96,0.00,,,0.00,Wunderground v.1.15,2013-03-10 16:46:00,
2013-03-10 11:47:00,37.5,36.5,29.85,North,5,5.0,8.0,96,0.00,,,0.00,Wunderground v.1.15,2013-03-10 16:47:00,
2013-03-10 11:48:00,37.5,36.5,29.85,NE,46,5.0,11.0,96,0.00,,,0.00,Wunderground v.1.15,2013-03-10 16:48:00,
2013-03-10 11:49:00,37.5,36.5,29.85,NE,36,5.0,11.0,96,0.00,,,0.00,Wunderground v.1.15,2013-03-10 16:49:00,
2013-03-10 11:53:00,37.6,36.6,29.85,North,355,5.0,11.0,96,0.00,,,0.00,Wunderground v.1.15,2013-03-10 16:53:00,
2013-03-10 11:56:00,37.7,36.7,29.85,NNE,16,5.0,11.0,96,0.00,,,0.00,Wunderground v.1.15,2013-03-10 16:56:00,
2013-03-10 11:57:00,37.7,36.7,29.85,NE,39,5.0,11.0,96,0.00,,,0.00,Wunderground v.1.15,2013-03-10 16:57:00,
2013-03-10 11:58:00,37.7,36.7,29.85,NW,315,5.0,11.0,96,0.00,,,0.00,Wunderground v.1.15,2013-03-10 16:58:00,
2013-03-10 12:03:00,37.7,36.7,29.83,NW,320,5.0,11.0,96,0.00,,,0.00,Wunderground v.1.15,2013-03-10 17:03:00,
2013-03-10 12:04:00,37.7,36.7,29.83,NNW,338,6.0,12.0,96,0.00,,,0.00,Wunderground v.1.15,2013-03-10 17:04:00,
2013-03-10 12:07:00,37.7,36.7,29.82,NNW,340,7.0,13.0,96,0.00,,,0.00,Wunderground v.1.15,2013-03-10 17:07:00,
2013-03-10 12:09:00,37.7,36.7,29.82,WNW,302,8.0,13.0,96,0.00,,,0.00,Wunderground v.1.15,2013-03-10 17:09:00,
2013-03-10 12:10:00,37.8,36.8,29.83,NE,46,7.0,13.0,96,0.00,,,0.00,Wunderground v.1.15,2013-03-10 17:10:00,
2013-03-10 12:13:00,37.9,37.0,29.83,East,89,1.0,-999.0,96,-99.99,,,0.00,weatherlink.com 1.10,2013-03-10 17:13:00,
2013-03-10 12:18:00,38.1,37.1,29.84,NNE,18,5.0,7.0,96,0.00,,,0.00,Wunderground v.1.15,2013-03-10 17:18:00,
2013-03-10 12:19:00,38.1,37.1,29.84,ENE,63,5.0,7.0,96,0.00,,,0.00,Wunderground v.1.15,2013-03-10 17:19:00,
2013-03-10 12:23:00,38.1,37.1,29.84,NW,321,4.0,7.0,96,0.00,,,0.00,Wunderground v.1.15,2013-03-10 17:23:00,
2013-03-10 12:27:00,38.0,37.0,29.83,NE,55,4.0,15.0,96,0.00,,,0.00,Wunderground v.1.15,2013-03-10 17:27:00,
2013-03-10 12:29:00,38.0,37.0,29.83,NNE,24,4.0,15.0,96,0.00,,,0.00,Wunderground v.1.15,2013-03-10 17:29:00,
2013-03-10 12:30:00,38.0,37.0,29.83,NW,319,4.0,15.0,96,0.00,,,0.00,Wunderground v.1.15,2013-03-10 17:30:00,
2013-03-10 12:33:00,37.9,36.9,29.83,North,5,4.0,15.0,96,0.00,,,0.00,Wunderground v.1.15,2013-03-10 17:33:00,
2013-03-10 12:36:00,37.8,36.8,29.84,NE,34,5.0,15.0,96,0.00,,,0.00,Wunderground v.1.15,2013-03-10 17:36:00,
2013-03-10 12:38:00,37.8,36.8,29.84,NE,42,5.0,15.0,96,0.00,,,0.00,Wunderground v.1.15,2013-03-10 17:38:00,
2013-03-10 12:41:00,37.7,36.7,29.83,NE,35,5.0,15.0,96,0.00,,,0.00,Wunderground v.1.15,2013-03-10 17:41:00,
2013-03-10 12:43:00,37.6,36.6,29.83,NNE,23,6.0,15.0,96,0.00,,,0.00,Wunderground v.1.15,2013-03-10 17:43:00,
2013-03-10 12:47:00,37.5,36.2,29.83,ENE,76,6.0,15.0,95,0.00,,,0.00,Wunderground v.1.15,2013-03-10 17:47:00,
2013-03-10 12:49:00,37.5,36.2,29.83,NE,45,5.0,15.0,95,0.00,,,0.00,Wunderground v.1.15,2013-03-10 17:49:00,
2013-03-10 12:52:00,37.5,36.2,29.83,NE,40,5.0,15.0,95,0.00,,,0.00,Wunderground v.1.15,2013-03-10 17:52:00,
2013-03-10 12:53:00,37.5,36.2,29.83,NNE,21,5.0,15.0,95,0.00,,,0.00,Wunderground v.1.15,2013-03-10 17:53:00,
2013-03-10 12:58:00,37.5,36.2,29.83,ENE,57,5.0,7.0,95,0.00,,,0.00,Wunderground v.1.15,2013-03-10 17:58:00,
2013-03-10 13:00:00,37.5,36.2,29.83,NNE,19,5.0,12.0,95,0.00,,,0.00,Wunderground v.1.15,2013-03-10 18:00:00,
2013-03-10 13:01:00,37.5,36.2,29.83,NE,34,6.0,12.0,95,0.00,,,0.00,Wunderground v.1.15,2013-03-10 18:01:00,
2013-03-10 13:07:00,37.6,36.0,29.83,North,5,5.0,9.0,94,0.00,,,0.00,Wunderground v.1.15,2013-03-10 18:07:00,
2013-03-10 13:08:00,37.6,36.3,29.84,NE,51,5.0,9.0,95,0.00,,,0.00,Wunderground v.1.15,2013-03-10 18:08:00,
2013-03-10 13:09:00,37.5,35.9,29.84,NNE,25,6.0,9.0,94,0.00,,,0.00,Wunderground v.1.15,2013-03-10 18:09:00,
2013-03-10 13:10:00,37.5,35.9,29.84,NNW,348,5.0,9.0,94,0.00,,,0.00,Wunderground v.1.15,2013-03-10 18:10:00,
2013-03-10 13:13:00,37.5,35.9,29.84,NE,40,6.0,9.0,94,0.00,,,0.00,Wunderground v.1.15,2013-03-10 18:13:00,
2013-03-10 13:14:00,37.5,36.0,29.85,NE,47,2.0,-999.0,94,-99.99,,,0.00,weatherlink.com 1.10,2013-03-10 18:14:00,
2013-03-10 13:15:00,37.5,35.9,29.85,NNE,28,6.0,7.0,94,0.00,,,0.00,Wunderground v.1.15,2013-03-10 18:15:00,
2013-03-10 13:21:00,37.5,35.9,29.85,North,5,6.0,7.0,94,0.00,,,0.00,Wunderground v.1.15,2013-03-10 18:21:00,
2013-03-10 13:22:00,37.5,35.9,29.85,East,90,5.0,7.0,94,0.00,,,0.00,Wunderground v.1.15,2013-03-10 18:22:00,
2013-03-10 13:24:00,37.5,35.9,29.85,ENE,69,5.0,7.0,94,0.00,,,0.00,Wunderground v.1.15,2013-03-10 18:24:00,
2013-03-10 13:27:00,37.4,35.8,29.85,NNE,26,5.0,14.0,94,0.00,,,0.00,Wunderground v.1.15,2013-03-10 18:27:00,
2013-03-10 13:29:00,37.4,35.8,29.85,NE,38,5.0,14.0,94,0.00,,,0.00,Wunderground v.1.15,2013-03-10 18:29:00,
2013-03-10 13:31:00,37.4,36.0,29.85,NNE,17,5.0,-999.0,94,-99.99,,,0.00,weatherlink.com 1.10,2013-03-10 18:31:00,
2013-03-10 13:34:00,37.4,35.8,29.85,North,9,5.0,14.0,94,0.00,,,0.00,Wunderground v.1.15,2013-03-10 18:34:00,
2013-03-10 13:36:00,37.4,35.8,29.85,ENE,71,5.0,14.0,94,0.00,,,0.00,Wunderground v.1.15,2013-03-10 18:36:00,
2013-03-10 13:39:00,37.4,35.8,29.85,NE,42,5.0,14.0,94,0.00,,,0.00,Wunderground v.1.15,2013-03-10 18:39:00,
2013-03-10 13:42:00,37.4,35.8,29.85,NNE,15,4.0,14.0,94,0.00,,,0.00,Wunderground v.1.15,2013-03-10 18:42:00,
2013-03-10 13:43:00,37.4,35.6,29.85,NNE,26,4.0,14.0,93,0.00,,,0.00,Wunderground v.1.15,2013-03-10 18:43:00,
2013-03-10 13:45:00,37.4,36.0,29.85,NE,38,2.0,-999.0,93,-99.99,,,0.00,weatherlink.com 1.10,2013-03-10 18:45:00,
2013-03-10 13:48:00,37.4,35.6,29.85,NE,38,5.0,14.0,93,0.00,,,0.00,Wunderground v.1.15,2013-03-10 18:48:00,
2013-03-10 13:50:00,37.4,35.6,29.85,NE,45,5.0,14.0,93,0.00,,,0.00,Wunderground v.1.15,2013-03-10 18:50:00,
2013-03-10 13:51:00,37.4,35.6,29.85,NNW,337,5.0,14.0,93,0.00,,,0.00,Wunderground v.1.15,2013-03-10 18:51:00,
2013-03-10 13:53:00,37.4,35.6,29.85,NE,38,5.0,14.0,93,0.00,,,0.00,Wunderground v.1.15,2013-03-10 18:53:00,
2013-03-10 13:56:00,37.3,35.5,29.85,NE,54,6.0,6.0,93,0.00,,,0.00,Wunderground v.1.15,2013-03-10 18:56:00,
2013-03-10 14:00:00,37.3,36.0,29.85,SE,132,5.0,-999.0,93,-99.99,,,0.00,weatherlink.com 1.10,2013-03-10 19:00:00,
2013-03-10 14:05:00,37.2,35.4,29.85,ENE,78,6.0,17.0,93,0.00,,,0.00,Wunderground v.1.15,2013-03-10 19:05:00,
2013-03-10 14:07:00,37.2,35.4,29.84,NE,46,5.0,6.0,93,0.00,,,0.00,Wunderground v.1.15,2013-03-10 19:07:00,
2013-03-10 14:11:00,37.1,35.3,29.84,North,355,6.0,8.0,93,0.00,,,0.00,Wunderground v.1.15,2013-03-10 19:11:00,
2013-03-10 14:12:00,37.1,35.3,29.84,ENE,69,6.0,10.0,93,0.00,,,0.00,Wunderground v.1.15,2013-03-10 19:12:00,
2013-03-10 14:13:00,37.1,35.3,29.84,NNE,28,6.0,10.0,93,0.00,,,0.00,Wunderground v.1.15,2013-03-10 19:13:00,
2013-03-10 14:14:00,37.0,35.0,29.84,ENE,57,12.0,-999.0,93,-99.99,,,0.00,weatherlink.com 1.10,2013-03-10 19:14:00,
2013-03-10 14:16:00,37.0,35.2,29.83,ESE,113,6.0,13.0,93,0.00,,,0.00,Wunderground v.1.15,2013-03-10 19:16:00,
2013-03-10 14:19:00,36.9,35.1,29.83,NE,55,7.0,13.0,93,0.00,,,0.00,Wunderground v.1.15,2013-03-10 19:19:00,
2013-03-10 14:21:00,37.0,35.2,29.83,NNE,22,6.0,13.0,93,0.00,,,0.00,Wunderground v.1.15,2013-03-10 19:21:00,
2013-03-10 14:22:00,36.9,35.1,29.83,ENE,58,6.0,13.0,93,0.00,,,0.00,Wunderground v.1.15,2013-03-10 19:22:00,
2013-03-10 14:23:00,36.9,35.1,29.82,ENE,78,6.0,13.0,93,0.00,,,0.00,Wunderground v.1.15,2013-03-10 19:23:00,
2013-03-10 14:26:00,36.9,35.1,29.82,NNE,32,6.0,7.0,93,0.00,,,0.00,Wunderground v.1.15,2013-03-10 19:26:00,
2013-03-10 14:28:00,36.8,35.0,29.82,NE,37,6.0,14.0,93,0.00,,,0.00,Wunderground v.1.15,2013-03-10 19:28:00,
2013-03-10 14:29:00,36.8,35.0,29.81,North,350,7.0,14.0,93,0.00,,,0.00,Wunderground v.1.15,2013-03-10 19:29:00,
2013-03-10 14:33:00,36.8,35.0,29.82,NE,40,7.0,14.0,93,0.00,,,0.00,Wunderground v.1.15,2013-03-10 19:33:00,
2013-03-10 14:36:00,36.7,34.9,29.82,ENE,78,7.0,14.0,93,0.00,,,0.00,Wunderground v.1.15,2013-03-10 19:36:00,
2013-03-10 14:39:00,36.6,34.8,29.82,East,80,7.0,14.0,93,0.00,,,0.00,Wunderground v.1.15,2013-03-10 19:39:00,
2013-03-10 14:40:00,36.6,34.8,29.82,NNE,28,6.0,14.0,93,0.00,,,0.00,Wunderground v.1.15,2013-03-10 19:40:00,
2013-03-10 14:43:00,36.6,34.8,29.82,NE,36,5.0,14.0,93,0.00,,,0.00,Wunderground v.1.15,2013-03-10 19:43:00,
2013-03-10 14:44:00,36.6,35.0,29.82,ENE,59,4.0,-999.0,93,-99.99,,,0.00,weatherlink.com 1.10,2013-03-10 19:44:00,
2013-03-10 14:48:00,36.6,34.8,29.82,ENE,71,5.0,14.0,93,0.00,,,0.00,Wunderground v.1.15,2013-03-10 19:48:00,
2013-03-10 14:50:00,36.6,34.8,29.82,ENE,61,5.0,14.0,93,0.00,,,0.00,Wunderground v.1.15,2013-03-10 19:50:00,
2013-03-10 14:52:00,36.6,34.8,29.82,NE,47,5.0,14.0,93,0.00,,,0.00,Wunderground v.1.15,2013-03-10 19:52:00,
2013-03-10 14:56:00,36.5,34.7,29.82,NE,38,5.0,7.0,93,0.00,,,0.00,Wunderground v.1.15,2013-03-10 19:56:00,
2013-03-10 15:02:00,36.5,34.7,29.82,NNE,33,5.0,7.0,93,0.00,,,0.00,Wunderground v.1.15,2013-03-10 20:02:00,
2013-03-10 15:03:00,36.5,34.7,29.81,ENE,78,5.0,7.0,93,0.00,,,0.00,Wunderground v.1.15,2013-03-10 20:03:00,
2013-03-10 15:05:00,36.5,34.7,29.81,NE,34,5.0,11.0,93,0.00,,,0.00,Wunderground v.1.15,2013-03-10 20:05:00,
2013-03-10 15:09:00,36.5,34.7,29.80,NE,42,5.0,11.0,93,0.00,,,0.00,Wunderground v.1.15,2013-03-10 20:09:00,
2013-03-10 15:10:00,36.5,34.7,29.80,ENE,64,5.0,11.0,93,0.00,,,0.00,Wunderground v.1.15,2013-03-10 20:10:00,
2013-03-10 15:12:00,36.5,34.7,29.80,ENE,62,5.0,11.0,93,0.00,,,0.00,Wunderground v.1.15,2013-03-10 20:12:00,
2013-03-10 15:14:00,36.5,34.7,29.80,ENE,77,5.0,11.0,93,0.00,,,0.00,Wunderground v.1.15,2013-03-10 20:14:00,
2013-03-10 15:15:00,36.5,34.7,29.79,NE,46,5.0,5.0,93,0.00,,,0.00,Wunderground v.1.15,2013-03-10 20:15:00,
2013-03-10 15:19:00,36.5,34.7,29.79,NNE,17,5.0,12.0,93,0.00,,,0.00,Wunderground v.1.15,2013-03-10 20:19:00,
2013-03-10 15:25:00,36.6,34.8,29.80,ESE,123,7.0,14.0,93,0.00,,,0.00,Wunderground v.1.15,2013-03-10 20:25:00,
2013-03-10 15:27:00,36.6,34.8,29.79,ENE,73,7.0,21.0,93,0.00,,,0.00,Wunderground v.1.15,2013-03-10 20:27:00,
2013-03-10 15:30:00,36.6,34.8,29.80,NE,34,7.0,21.0,93,0.00,,,0.00,Wunderground v.1.15,2013-03-10 20:30:00,
2013-03-10 15:32:00,36.6,34.8,29.80,NE,41,7.0,21.0,93,0.00,,,0.00,Wunderground v.1.15,2013-03-10 20:32:00,
2013-03-10 15:34:00,36.6,34.8,29.79,NE,41,6.0,21.0,93,0.00,,,0.00,Wunderground v.1.15,2013-03-10 20:34:00,
2013-03-10 15:35:00,36.6,34.8,29.79,NNE,25,6.0,21.0,93,0.00,,,0.00,Wunderground v.1.15,2013-03-10 20:35:00,
2013-03-10 15:42:00,36.6,34.8,29.80,NE,42,5.0,21.0,93,0.00,,,0.00,Wunderground v.1.15,2013-03-10 20:42:00,
2013-03-10 15:45:00,36.6,34.8,29.80,East,92,6.0,6.0,93,0.00,,,0.00,Wunderground v.1.15,2013-03-10 20:45:00,
2013-03-10 15:48:00,36.6,34.8,29.80,NNE,28,5.0,21.0,93,0.00,,,0.00,Wunderground v.1.15,2013-03-10 20:48:00,
2013-03-10 15:54:00,36.5,34.7,29.80,ESE,103,5.0,21.0,93,0.00,,,0.00,Wunderground v.1.15,2013-03-10 20:54:00,
2013-03-10 15:55:00,36.5,34.7,29.80,NE,40,5.0,21.0,93,0.00,,,0.00,Wunderground v.1.15,2013-03-10 20:55:00,
2013-03-10 15:56:00,36.5,34.7,29.80,ENE,63,5.0,5.0,93,0.00,,,0.00,Wunderground v.1.15,2013-03-10 20:56:00,
2013-03-10 15:58:00,36.5,34.7,29.80,NE,55,5.0,7.0,93,0.00,,,0.00,Wunderground v.1.15,2013-03-10 20:58:00,
2013-03-10 15:59:00,36.5,34.7,29.80,NNE,16,5.0,7.0,93,0.00,,,0.00,Wunderground v.1.15,2013-03-10 20:59:00,
2013-03-10 16:01:00,36.5,34.7,29.80,NE,55,5.0,7.0,93,0.00,,,0.00,Wunderground v.1.15,2013-03-10 21:01:00,
2013-03-10 16:05:00,36.5,34.7,29.80,North,5,5.0,5.0,93,0.00,,,0.00,Wunderground v.1.15,2013-03-10 21:05:00,
2013-03-10 16:06:00,36.5,34.7,29.81,NE,42,5.0,11.0,93,0.00,,,0.00,Wunderground v.1.15,2013-03-10 21:06:00,
2013-03-10 16:11:00,36.5,34.7,29.81,NE,49,5.0,11.0,93,0.00,,,0.00,Wunderground v.1.15,2013-03-10 21:11:00,
2013-03-10 16:12:00,36.5,34.7,29.81,NE,44,6.0,11.0,93,0.00,,,0.00,Wunderground v.1.15,2013-03-10 21:12:00,
2013-03-10 16:13:00,36.5,34.7,29.81,NNE,25,6.0,11.0,93,0.00,,,0.00,Wunderground v.1.15,2013-03-10 21:13:00,
2013-03-10 16:17:00,36.5,34.7,29.81,ENE,62,6.0,6.0,93,0.00,,,0.00,Wunderground v.1.15,2013-03-10 21:17:00,
2013-03-10 16:18:00,36.5,34.7,29.80,ENE,60,6.0,6.0,93,0.00,,,0.00,Wunderground v.1.15,2013-03-10 21:18:00,
2013-03-10 16:19:00,36.5,34.7,29.81,North,9,6.0,6.0,93,0.00,,,0.00,Wunderground v.1.15,2013-03-10 21:19:00,
2013-03-10 16:22:00,36.5,34.7,29.81,East,88,6.0,6.0,93,0.00,,,0.00,Wunderground v.1.15,2013-03-10 21:22:00,
2013-03-10 16:24:00,36.4,34.6,29.80,East,94,5.0,8.0,93,0.00,,,0.00,Wunderground v.1.15,2013-03-10 21:24:00,
2013-03-10 16:27:00,36.3,34.5,29.81,East,80,6.0,16.0,93,0.00,,,0.00,Wunderground v.1.15,2013-03-10 21:27:00,
2013-03-10 16:28:00,36.3,34.5,29.80,NNE,13,6.0,16.0,93,0.00,,,0.00,Wunderground v.1.15,2013-03-10 21:28:00,
2013-03-10 16:30:00,36.2,34.0,29.80,NNE,31,7.0,-999.0,93,-99.99,,,0.00,weatherlink.com 1.10,2013-03-10 21:30:00,
2013-03-10 16:33:00,36.2,34.4,29.80,ENE,70,7.0,16.0,93,0.00,,,0.00,Wunderground v.1.15,2013-03-10 21:33:00,
2013-03-10 16:36:00,36.1,34.3,29.81,East,87,6.0,16.0,93,0.00,,,0.00,Wunderground v.1.15,2013-03-10 21:36:00,
2013-03-10 16:37:00,36.1,34.3,29.81,NE,47,6.0,16.0,93,0.00,,,0.00,Wunderground v.1.15,2013-03-10 21:37:00,
2013-03-10 16:38:00,36.1,34.3,29.81,NE,49,6.0,16.0,93,0.00,,,0.00,Wunderground v.1.15,2013-03-10 21:38:00,
2013-03-10 16:40:00,36.1,34.3,29.81,ENE,65,6.0,16.0,93,0.00,,,0.00,Wunderground v.1.15,2013-03-10 21:40:00,
2013-03-10 16:43:00,36.0,34.4,29.81,East,79,5.0,16.0,94,0.00,,,0.00,Wunderground v.1.15,2013-03-10 21:43:00,
2013-03-10 16:44:00,36.0,34.4,29.81,ENE,66,6.0,16.0,94,0.00,,,0.00,Wunderground v.1.15,2013-03-10 21:44:00,
2013-03-10 16:45:00,36.0,34.4,29.81,NW,321,6.0,6.0,94,0.00,,,0.00,Wunderground v.1.15,2013-03-10 21:45:00,
2013-03-10 16:49:00,35.9,34.3,29.81,NE,36,6.0,16.0,94,0.00,,,0.00,Wunderground v.1.15,2013-03-10 21:49:00,
2013-03-10 16:50:00,35.9,34.3,29.81,North,360,6.0,16.0,94,0.00,,,0.00,Wunderground v.1.15,2013-03-10 21:50:00,
2013-03-10 16:51:00,35.9,34.3,29.81,NE,47,6.0,16.0,94,0.00,,,0.00,Wunderground v.1.15,2013-03-10 21:51:00,
2013-03-10 16:54:00,35.9,34.3,29.81,NE,36,6.0,16.0,94,0.00,,,0.00,Wunderground v.1.15,2013-03-10 21:54:00,
2013-03-10 16:56:00,35.8,34.2,29.81,NE,40,7.0,7.0,94,0.00,,,0.00,Wunderground v.1.15,2013-03-10 21:56:00,
2013-03-10 16:59:00,35.7,34.1,29.81,NE,42,7.0,12.0,94,0.00,,,0.00,Wunderground v.1.15,2013-03-10 21:59:00,
2013-03-10 17:01:00,35.7,34.0,29.81,ENE,61,2.0,-999.0,94,-99.99,,,0.00,weatherlink.com 1.10,2013-03-10 22:01:00,
2013-03-10 17:04:00,35.7,34.1,29.81,NE,56,7.0,12.0,94,0.00,,,0.00,Wunderground v.1.15,2013-03-10 22:04:00,
2013-03-10 17:07:00,35.7,34.1,29.81,NE,37,6.0,9.0,94,0.00,,,0.00,Wunderground v.1.15,2013-03-10 22:07:00,
2013-03-10 17:10:00,35.6,34.0,29.81,NE,38,5.0,9.0,94,0.00,,,0.00,Wunderground v.1.15,2013-03-10 22:10:00,
2013-03-10 17:13:00,35.6,34.0,29.81,East,83,6.0,9.0,94,0.00,,,0.00,Wunderground v.1.15,2013-03-10 22:13:00,
2013-03-10 17:15:00,35.5,34.0,29.81,ENE,74,4.0,-999.0,94,-99.99,,,0.00,weatherlink.com 1.10,2013-03-10 22:15:00,
2013-03-10 17:17:00,35.5,33.9,29.81,East,80,6.0,8.0,94,0.00,,,0.00,Wunderground v.1.15,2013-03-10 22:17:00,
2013-03-10 17:22:00,35.5,33.9,29.81,NNW,346,6.0,8.0,94,0.00,,,0.00,Wunderground v.1.15,2013-03-10 22:22:00,
2013-03-10 17:24:00,35.5,33.9,29.81,NE,34,6.0,8.0,94,0.00,,,0.00,Wunderground v.1.15,2013-03-10 22:24:00,
2013-03-10 17:27:00,35.5,33.9,29.81,ENE,60,5.0,18.0,94,0.00,,,0.00,Wunderground v.1.15,2013-03-10 22:27:00,
2013-03-10 17:28:00,35.4,33.8,29.81,NE,47,5.0,18.0,94,0.00,,,0.00,Wunderground v.1.15,2013-03-10 22:28:00,
2013-03-10 17:30:00,35.4,34.0,29.82,NNE,28,4.0,-999.0,94,-99.99,,,0.00,weatherlink.com 1.10,2013-03-10 22:30:00,
2013-03-10 17:32:00,35.4,34.1,29.82,NE,34,5.0,18.0,95,0.00,,,0.00,Wunderground v.1.15,2013-03-10 22:32:00,
2013-03-10 17:35:00,35.4,34.1,29.81,East,87,6.0,18.0,95,0.00,,,0.00,Wunderground v.1.15,2013-03-10 22:35:00,
2013-03-10 17:40:00,35.3,33.7,29.82,NNE,17,7.0,18.0,94,0.00,,,0.00,Wunderground v.1.15,2013-03-10 22:40:00,
2013-03-10 17:41:00,35.3,33.7,29.81,NE,40,7.0,18.0,94,0.00,,,0.00,Wunderground v.1.15,2013-03-10 22:41:00,
2013-03-10 17:43:00,35.3,33.7,29.81,NE,47,7.0,18.0,94,0.00,,,0.00,Wunderground v.1.15,2013-03-10 22:43:00,
2013-03-10 17:45:00,35.2,34.0,29.81,NE,43,4.0,-999.0,94,-99.99,,,0.00,weatherlink.com 1.10,2013-03-10 22:45:00,
2013-03-10 17:49:00,35.2,33.9,29.81,NE,55,6.0,18.0,95,0.00,,,0.00,Wunderground v.1.15,2013-03-10 22:49:00,
2013-03-10 17:52:00,35.2,33.9,29.81,NE,47,6.0,18.0,95,0.00,,,0.00,Wunderground v.1.15,2013-03-10 22:52:00,
2013-03-10 17:53:00,35.2,33.9,29.81,NNE,15,6.0,18.0,95,0.00,,,0.00,Wunderground v.1.15,2013-03-10 22:53:00,
2013-03-10 17:55:00,35.1,33.8,29.80,NNE,29,7.0,18.0,95,0.00,,,0.00,Wunderground v.1.15,2013-03-10 22:55:00,
2013-03-10 17:56:00,35.1,33.8,29.80,NNE,26,7.0,7.0,95,0.00,,,0.00,Wunderground v.1.15,2013-03-10 22:56:00,
2013-03-10 17:57:00,35.1,33.8,29.80,NNE,27,6.0,7.0,95,0.00,,,0.00,Wunderground v.1.15,2013-03-10 22:57:00,
2013-03-10 17:59:00,35.1,33.8,29.80,NNE,30,6.0,7.0,95,0.00,,,0.00,Wunderground v.1.15,2013-03-10 22:59:00,
2013-03-10 18:01:00,35.1,34.0,29.80,ENE,71,5.0,-999.0,95,-99.99,,,0.00,weatherlink.com 1.10,2013-03-10 23:01:00,
2013-03-10 18:02:00,35.1,33.8,29.80,NNE,24,6.0,7.0,95,0.00,,,0.00,Wunderground v.1.15,2013-03-10 23:02:00,
2013-03-10 18:05:00,35.0,33.7,29.80,NNE,12,6.0,14.0,95,0.00,,,0.00,Wunderground v.1.15,2013-03-10 23:05:00,
2013-03-10 18:07:00,35.0,33.7,29.79,ENE,71,7.0,9.0,95,0.00,,,0.00,Wunderground v.1.15,2013-03-10 23:07:00,
2013-03-10 18:10:00,35.0,33.7,29.79,ENE,78,8.0,9.0,95,0.00,,,0.00,Wunderground v.1.15,2013-03-10 23:10:00,
2013-03-10 18:11:00,35.0,33.7,29.79,ENE,60,8.0,10.0,95,0.00,,,0.00,Wunderground v.1.15,2013-03-10 23:11:00,
2013-03-10 18:14:00,35.0,33.7,29.78,NNE,30,8.0,12.0,95,0.00,,,0.00,Wunderground v.1.15,2013-03-10 23:14:00,
2013-03-10 18:18:00,35.0,33.7,29.78,ENE,59,8.0,11.0,95,0.00,,,0.00,Wunderground v.1.15,2013-03-10 23:18:00,
2013-03-10 18:20:00,34.9,33.6,29.78,NNE,31,8.0,11.0,95,0.00,,,0.00,Wunderground v.1.15,2013-03-10 23:20:00,
2013-03-10 18:21:00,34.9,33.6,29.78,NE,35,8.0,11.0,95,0.00,,,0.00,Wunderground v.1.15,2013-03-10 23:21:00,
2013-03-10 18:26:00,34.8,33.5,29.78,ENE,68,7.0,8.0,95,0.00,,,0.00,Wunderground v.1.15,2013-03-10 23:26:00,
2013-03-10 18:27:00,34.9,33.6,29.78,North,355,7.0,17.0,95,0.00,,,0.00,Wunderground v.1.15,2013-03-10 23:27:00,
2013-03-10 18:32:00,34.8,33.5,29.77,NE,35,8.0,17.0,95,0.00,,,0.00,Wunderground v.1.15,2013-03-10 23:32:00,
2013-03-10 18:33:00,34.8,33.5,29.77,NE,40,9.0,18.0,95,0.00,,,0.00,Wunderground v.1.15,2013-03-10 23:33:00,
2013-03-10 18:37:00,34.8,33.5,29.78,NE,39,9.0,17.0,95,0.00,,,0.00,Wunderground v.1.15,2013-03-10 23:37:00,
2013-03-10 18:38:00,34.8,33.5,29.78,NE,34,9.0,17.0,95,0.00,,,0.00,Wunderground v.1.15,2013-03-10 23:38:00,
2013-03-10 18:40:00,34.8,33.5,29.78,NNE,22,9.0,17.0,95,0.00,,,0.00,Wunderground v.1.15,2013-03-10 23:40:00,
2013-03-10 18:45:00,34.7,34.0,29.77,NE,42,6.0,-999.0,95,-99.99,,,0.00,weatherlink.com 1.10,2013-03-10 23:45:00,
2013-03-10 18:46:00,34.7,33.4,29.77,NE,45,9.0,17.0,95,0.00,,,0.00,Wunderground v.1.15,2013-03-10 23:46:00,
2013-03-10 18:48:00,34.7,33.4,29.77,NE,52,8.0,17.0,95,0.00,,,0.00,Wunderground v.1.15,2013-03-10 23:48:00,
2013-03-10 18:51:00,34.6,33.3,29.75,NNE,26,9.0,17.0,95,0.00,,,0.00,Wunderground v.1.15,2013-03-10 23:51:00,
2013-03-10 18:53:00,34.6,33.3,29.75,North,11,10.0,17.0,95,0.00,,,0.00,Wunderground v.1.15,2013-03-10 23:53:00,
2013-03-10 18:58:00,34.5,33.2,29.76,East,86,10.0,13.0,95,0.00,,,0.00,Wunderground v.1.15,2013-03-10 23:58:00,
2013-03-10 18:59:00,34.6,33.3,29.76,NE,37,10.0,13.0,95,0.00,,,0.00,Wunderground v.1.15,2013-03-10 23:59:00,
2013-03-10 19:01:00,34.5,33.2,29.75,NNE,33,10.0,19.0,95,0.00,,,0.00,Wunderground v.1.15,2013-03-11 00:01:00,
2013-03-10 19:04:00,34.5,33.2,29.75,North,5,11.0,19.0,95,0.00,,,0.00,Wunderground v.1.15,2013-03-11 00:04:00,
2013-03-10 19:07:00,34.5,33.0,29.75,NE,46,11.0,11.0,94,0.00,,,0.00,Wunderground v.1.15,2013-03-11 00:07:00,
2013-03-10 19:08:00,34.4,32.9,29.75,NNE,22,10.0,12.0,94,0.00,,,0.00,Wunderground v.1.15,2013-03-11 00:08:00,
2013-03-10 19:12:00,34.4,32.9,29.75,NNE,29,10.0,15.0,94,0.00,,,0.00,Wunderground v.1.15,2013-03-11 00:12:00,
2013-03-10 19:13:00,34.4,32.9,29.75,NE,54,10.0,15.0,94,0.00,,,0.00,Wunderground v.1.15,2013-03-11 00:13:00,
2013-03-10 19:15:00,34.4,32.9,29.75,ENE,66,10.0,13.0,94,0.00,,,0.00,Wunderground v.1.15,2013-03-11 00:15:00,
2013-03-10 19:18:00,34.3,32.8,29.75,NNE,17,10.0,13.0,94,0.00,,,0.00,Wunderground v.1.15,2013-03-11 00:18:00,
2013-03-10 19:19:00,34.3,32.8,29.75,ENE,59,10.0,13.0,94,0.00,,,0.00,Wunderground v.1.15,2013-03-11 00:19:00,
2013-03-10 19:20:00,34.3,32.8,29.75,ENE,78,10.0,13.0,94,0.00,,,0.00,Wunderground v.1.15,2013-03-11 00:20:00,
2013-03-10 19:22:00,34.3,32.8,29.74,East,79,10.0,32.0,94,0.00,,,0.00,Wunderground v.1.15,2013-03-11 00:22:00,
2013-03-10 19:24:00,34.2,32.7,29.74,NE,34,10.0,32.0,94,0.00,,,0.00,Wunderground v.1.15,2013-03-11 00:24:00,
2013-03-10 19:25:00,34.2,32.7,29.74,ENE,59,11.0,14.0,94,0.00,,,0.00,Wunderground v.1.15,2013-03-11 00:25:00,
2013-03-10 19:28:00,34.1,32.6,29.74,ENE,65,12.0,23.0,94,0.00,,,0.00,Wunderground v.1.15,2013-03-11 00:28:00,
2013-03-10 19:29:00,34.1,32.6,29.74,ESE,104,12.0,23.0,94,0.00,,,0.00,Wunderground v.1.15,2013-03-11 00:29:00,
2013-03-10 19:30:00,34.1,32.6,29.74,NNW,346,13.0,23.0,94,0.00,,,0.00,Wunderground v.1.15,2013-03-11 00:30:00,
2013-03-10 19:32:00,34.1,32.6,29.74,NNE,26,13.0,29.0,94,0.00,,,0.00,Wunderground v.1.15,2013-03-11 00:32:00,
2013-03-10 19:35:00,34.0,32.5,29.73,ENE,73,13.0,13.0,94,0.00,,,0.00,Wunderground v.1.15,2013-03-11 00:35:00,
2013-03-10 19:37:00,34.0,32.5,29.73,NE,38,13.0,16.0,94,0.00,,,0.00,Wunderground v.1.15,2013-03-11 00:37:00,
2013-03-10 19:39:00,33.9,32.4,29.74,NNE,24,13.0,23.0,94,0.00,,,0.00,Wunderground v.1.15,2013-03-11 00:39:00,
2013-03-10 19:44:00,33.9,32.4,29.73,ENE,57,11.0,23.0,94,0.00,,,0.00,Wunderground v.1.15,2013-03-11 00:44:00,
2013-03-10 19:45:00,33.9,32.4,29.74,NE,44,11.0,23.0,94,0.00,,,0.00,Wunderground v.1.15,2013-03-11 00:45:00,
2013-03-10 19:46:00,33.8,32.0,29.73,NE,56,5.0,-999.0,94,-99.99,,,0.00,weatherlink.com 1.10,2013-03-11 00:46:00,
2013-03-10 19:50:00,33.7,32.2,29.74,East,79,8.0,23.0,94,0.00,,,0.00,Wunderground v.1.15,2013-03-11 00:50:00,
2013-03-10 19:52:00,33.8,32.3,29.74,NNE,16,8.0,23.0,94,0.00,,,0.00,Wunderground v.1.15,2013-03-11 00:52:00,
2013-03-10 19:57:00,33.7,32.2,29.75,ENE,70,8.0,11.0,94,0.00,,,0.00,Wunderground v.1.15,2013-03-11 00:57:00,
2013-03-10 19:58:00,33.7,32.2,29.74,ENE,65,8.0,13.0,94,0.00,,,0.00,Wunderground v.1.15,2013-03-11 00:58:00,
2013-03-10 19:59:00,33.6,32.1,29.74,SE,126,9.0,15.0,94,0.00,,,0.00,Wunderground v.1.15,2013-03-11 00:59:00,
2013-03-10 20:02:00,33.5,32.0,29.74,NE,50,9.0,15.0,94,0.00,,,0.00,Wunderground v.1.15,2013-03-11 01:02:00,
2013-03-10 20:05:00,33.4,31.9,29.74,NNE,13,9.0,9.0,94,0.00,,,0.00,Wunderground v.1.15,2013-03-11 01:05:00,
2013-03-10 20:07:00,33.4,31.9,29.74,NE,40,9.0,9.0,94,0.00,,,0.00,Wunderground v.1.15,2013-03-11 01:07:00,
2013-03-10 20:09:00,33.3,31.8,29.74,NE,38,9.0,16.0,94,0.00,,,0.00,Wunderground v.1.15,2013-03-11 01:09:00,
2013-03-10 20:13:00,33.3,31.8,29.74,NNE,19,9.0,17.0,94,0.00,,,0.00,Wunderground v.1.15,2013-03-11 01:13:00,
2013-03-10 20:14:00,33.3,31.8,29.73,ENE,67,10.0,17.0,94,0.00,,,0.00,Wunderground v.1.15,2013-03-11 01:14:00,
2013-03-10 20:15:00,33.2,31.7,29.74,ENE,74,10.0,10.0,94,0.00,,,0.00,Wunderground v.1.15,2013-03-11 01:15:00,
2013-03-10 20:18:00,33.2,31.7,29.73,ENE,60,10.0,11.0,94,0.00,,,0.00,Wunderground v.1.15,2013-03-11 01:18:00,
2013-03-10 20:20:00,33.1,31.6,29.73,ENE,59,10.0,19.0,94,0.00,,,0.00,Wunderground v.1.15,2013-03-11 01:20:00,
2013-03-10 20:21:00,33.1,31.6,29.73,ENE,71,10.0,19.0,94,0.00,,,0.00,Wunderground v.1.15,2013-03-11 01:21:00,
2013-03-10 20:25:00,33.1,31.6,29.73,East,86,10.0,15.0,94,0.00,,,0.00,Wunderground v.1.15,2013-03-11 01:25:00,
2013-03-10 20:27:00,33.0,31.5,29.73,ENE,68,10.0,35.0,94,0.00,,,0.00,Wunderground v.1.15,2013-03-11 01:27:00,
2013-03-10 20:28:00,33.0,31.5,29.73,NE,50,10.0,35.0,94,0.00,,,0.00,Wunderground v.1.15,2013-03-11 01:28:00,
2013-03-10 20:29:00,33.0,31.5,29.73,ENE,57,10.0,35.0,94,0.00,,,0.00,Wunderground v.1.15,2013-03-11 01:29:00,
2013-03-10 20:32:00,33.0,32.0,29.73,ENE,69,11.0,-999.0,94,-99.99,,,0.00,weatherlink.com 1.10,2013-03-11 01:32:00,
2013-03-10 20:34:00,32.9,31.4,29.73,NE,37,10.0,35.0,94,0.00,,,0.00,Wunderground v.1.15,2013-03-11 01:34:00,
2013-03-10 20:37:00,32.9,31.6,29.73,NE,36,10.0,35.0,95,0.00,,,0.00,Wunderground v.1.15,2013-03-11 01:37:00,
2013-03-10 20:39:00,32.9,31.6,29.73,ENE,59,9.0,35.0,95,0.00,,,0.00,Wunderground v.1.15,2013-03-11 01:39:00,
2013-03-10 20:41:00,32.9,31.4,29.72,NNE,32,10.0,35.0,94,0.00,,,0.00,Wunderground v.1.15,2013-03-11 01:41:00,
2013-03-10 20:43:00,32.8,31.3,29.73,NNE,33,10.0,35.0,94,0.00,,,0.00,Wunderground v.1.15,2013-03-11 01:43:00,
2013-03-10 20:46:00,32.8,31.3,29.73,North,9,10.0,35.0,94,0.00,,,0.00,Wunderground v.1.15,2013-03-11 01:46:00,
2013-03-10 20:47:00,32.8,31.0,29.73,NNE,13,5.0,-999.0,94,-99.99,,,0.00,weatherlink.com 1.10,2013-03-11 01:47:00,
2013-03-10 20:51:00,32.8,31.3,29.73,NNE,20,7.0,35.0,94,0.00,,,0.00,Wunderground v.1.15,2013-03-11 01:51:00,
2013-03-10 20:52:00,32.7,31.2,29.73,ENE,57,7.0,35.0,94,0.00,,,0.00,Wunderground v.1.15,2013-03-11 01:52:00,
2013-03-10 20:53:00,32.7,31.2,29.73,NE,43,7.0,35.0,94,0.00,,,0.00,Wunderground v.1.15,2013-03-11 01:53:00,
2013-03-10 20:57:00,32.7,31.4,29.73,ENE,76,6.0,12.0,95,0.00,,,0.00,Wunderground v.1.15,2013-03-11 01:57:00,
2013-03-10 20:59:00,32.6,31.3,29.73,ESE,123,7.0,12.0,95,0.00,,,0.00,Wunderground v.1.15,2013-03-11 01:59:00,
2013-03-10 21:01:00,32.6,31.0,29.72,ESE,105,6.0,-999.0,95,-99.99,,,0.00,weatherlink.com 1.10,2013-03-11 02:01:00,
2013-03-10 21:03:00,32.5,31.2,29.72,NE,36,8.0,22.0,95,0.00,,,0.00,Wunderground v.1.15,2013-03-11 02:03:00,
2013-03-10 21:07:00,32.5,31.2,29.72,North,5,10.0,11.0,95,0.00,,,0.00,Wunderground v.1.15,2013-03-11 02:07:00,
2013-03-10 21:08:00,32.5,31.2,29.73,SE,132,10.0,11.0,95,0.00,,,0.00,Wunderground v.1.15,2013-03-11 02:08:00,
2013-03-10 21:13:00,32.4,31.1,29.72,East,86,10.0,14.0,95,0.00,,,0.00,Wunderground v.1.15,2013-03-11 02:13:00,
2013-03-10 21:14:00,32.4,31.1,29.73,NE,49,10.0,14.0,95,0.00,,,0.00,Wunderground v.1.15,2013-03-11 02:14:00,
2013-03-10 21:15:00,32.4,31.1,29.72,ENE,63,10.0,19.0,95,0.00,,,0.00,Wunderground v.1.15,2013-03-11 02:15:00,
2013-03-10 21:19:00,32.4,31.1,29.71,NE,56,10.0,19.0,95,0.00,,,0.00,Wunderground v.1.15,2013-03-11 02:19:00,
2013-03-10 21:21:00,32.3,31.0,29.71,NE,42,10.0,22.0,95,0.00,,,0.00,Wunderground v.1.15,2013-03-11 02:21:00,
2013-03-10 21:22:00,32.3,31.0,29.71,NE,51,10.0,22.0,95,0.00,,,0.00,Wunderground v.1.15,2013-03-11 02:22:00,
2013-03-10 21:24:00,32.3,31.0,29.71,SE,125,10.0,22.0,95,0.00,,,0.00,Wunderground v.1.15,2013-03-11 02:24:00,
2013-03-10 21:26:00,32.3,31.0,29.71,ENE,67,10.0,11.0,95,0.00,,,0.00,Wunderground v.1.15,2013-03-11 02:26:00,
2013-03-10 21:29:00,32.3,31.0,29.71,NNE,19,10.0,24.0,95,0.00,,,0.00,Wunderground v.1.15,2013-03-11 02:29:00,
2013-03-10 21:31:00,32.3,31.0,29.71,NE,54,13.0,-999.0,95,-99.99,,,0.00,weatherlink.com 1.10,2013-03-11 02:31:00,
2013-03-10 21:32:00,32.3,31.0,29.71,NNE,29,9.0,24.0,95,0.00,,,0.00,Wunderground v.1.15,2013-03-11 02:32:00,
2013-03-10 21:35:00,32.3,31.0,29.71,East,94,9.0,24.0,95,0.00,,,0.00,Wunderground v.1.15,2013-03-11 02:35:00,
2013-03-10 21:37:00,32.3,30.8,29.71,NNE,30,9.0,24.0,94,0.00,,,0.00,Wunderground v.1.15,2013-03-11 02:37:00,
2013-03-10 21:39:00,32.3,30.8,29.71,NE,36,9.0,24.0,94,0.00,,,0.00,Wunderground v.1.15,2013-03-11 02:39:00,
2013-03-10 21:43:00,32.3,30.8,29.71,NE,45,8.0,24.0,94,0.00,,,0.00,Wunderground v.1.15,2013-03-11 02:43:00,
2013-03-10 21:44:00,32.3,30.8,29.71,ENE,72,8.0,24.0,94,0.00,,,0.00,Wunderground v.1.15,2013-03-11 02:44:00,
2013-03-10 21:48:00,32.3,30.8,29.71,NNE,24,9.0,24.0,94,0.00,,,0.00,Wunderground v.1.15,2013-03-11 02:48:00,
2013-03-10 21:50:00,32.3,30.8,29.71,North,9,9.0,24.0,94,0.00,,,0.00,Wunderground v.1.15,2013-03-11 02:50:00,
2013-03-10 21:56:00,32.3,30.8,29.71,NE,35,9.0,12.0,94,0.00,,,0.00,Wunderground v.1.15,2013-03-11 02:56:00,
2013-03-10 21:58:00,32.3,30.8,29.71,NE,41,9.0,12.0,94,0.00,,,0.00,Wunderground v.1.15,2013-03-11 02:58:00,
2013-03-10 22:00:00,32.3,30.8,29.71,North,360,8.0,12.0,94,0.00,,,0.00,Wunderground v.1.15,2013-03-11 03:00:00,
2013-03-10 22:01:00,32.3,30.8,29.71,NE,42,8.0,12.0,94,0.00,,,0.00,Wunderground v.1.15,2013-03-11 03:01:00,
2013-03-10 22:02:00,32.2,30.7,29.71,East,96,8.0,12.0,94,0.00,,,0.00,Wunderground v.1.15,2013-03-11 03:02:00,
2013-03-10 22:04:00,32.2,30.7,29.71,NE,54,9.0,16.0,94,0.00,,,0.00,Wunderground v.1.15,2013-03-11 03:04:00,
2013-03-10 22:06:00,32.2,30.7,29.71,NE,54,9.0,9.0,94,0.00,,,0.00,Wunderground v.1.15,2013-03-11 03:06:00,
2013-03-10 22:08:00,32.3,30.8,29.71,NNE,15,9.0,9.0,94,0.00,,,0.00,Wunderground v.1.15,2013-03-11 03:08:00,
2013-03-10 22:12:00,32.3,30.8,29.71,North,355,9.0,11.0,94,0.00,,,0.00,Wunderground v.1.15,2013-03-11 03:12:00,
2013-03-10 22:17:00,32.3,31.0,29.71,NE,46,4.0,-999.0,94,-99.99,,,0.00,weatherlink.com 1.10,2013-03-11 03:17:00,
2013-03-10 22:20:00,32.2,30.7,29.71,ENE,61,9.0,11.0,94,0.00,,,0.00,Wunderground v.1.15,2013-03-11 03:20:00,
2013-03-10 22:23:00,32.2,30.7,29.72,NNE,22,9.0,12.0,94,0.00,,,0.00,Wunderground v.1.15,2013-03-11 03:23:00,
2013-03-10 22:25:00,32.2,30.7,29.72,NNE,16,8.0,12.0,94,0.00,,,0.00,Wunderground v.1.15,2013-03-11 03:25:00,
2013-03-10 22:29:00,32.2,30.7,29.72,ENE,58,8.0,23.0,94,0.00,,,0.00,Wunderground v.1.15,2013-03-11 03:29:00,
2013-03-10 22:30:00,32.2,30.7,29.72,ENE,67,8.0,23.0,94,0.00,,,0.00,Wunderground v.1.15,2013-03-11 03:30:00,
2013-03-10 22:33:00,32.2,30.7,29.71,NNE,18,8.0,23.0,94,0.00,,,0.00,Wunderground v.1.15,2013-03-11 03:33:00,
2013-03-10 22:35:00,32.2,30.7,29.72,East,86,8.0,23.0,94,0.00,,,0.00,Wunderground v.1.15,2013-03-11 03:35:00,
2013-03-10 22:37:00,32.1,30.6,29.71,North,355,8.0,23.0,94,0.00,,,0.00,Wunderground v.1.15,2013-03-11 03:37:00,
2013-03-10 22:40:00,32.1,30.6,29.72,North,351,7.0,23.0,94,0.00,,,0.00,Wunderground v.1.15,2013-03-11 03:40:00,
2013-03-10 22:41:00,32.1,30.6,29.72,East,84,7.0,23.0,94,0.00,,,0.00,Wunderground v.1.15,2013-03-11 03:41:00,
2013-03-10 22:46:00,32.1,30.6,29.72,ENE,65,7.0,23.0,94,0.00,,,0.00,Wunderground v.1.15,2013-03-11 03:46:00,
2013-03-10 22:47:00,32.1,31.0,29.72,North,355,5.0,-999.0,94,-99.99,,,0.00,weatherlink.com 1.10,2013-03-11 03:47:00,
2013-03-10 22:48:00,32.1,30.6,29.72,NE,37,6.0,23.0,94,0.00,,,0.00,Wunderground v.1.15,2013-03-11 03:48:00,
2013-03-10 22:50:00,32.1,30.8,29.72,NE,36,5.0,23.0,95,0.00,,,0.00,Wunderground v.1.15,2013-03-11 03:50:00,
2013-03-10 22:54:00,32.1,30.8,29.72,NE,44,5.0,23.0,95,0.00,,,0.00,Wunderground v.1.15,2013-03-11 03:54:00,
2013-03-10 22:56:00,32.0,30.7,29.72,ENE,63,5.0,10.0,95,0.00,,,0.00,Wunderground v.1.15,2013-03-11 03:56:00,
2013-03-10 22:57:00,32.0,30.7,29.72,ENE,69,5.0,10.0,95,0.00,,,0.00,Wunderground v.1.15,2013-03-11 03:57:00,
2013-03-10 22:58:00,32.0,30.7,29.72,NE,36,5.0,10.0,95,0.00,,,0.00,Wunderground v.1.15,2013-03-11 03:58:00,
2013-03-10 23:01:00,32.0,30.7,29.72,NE,38,5.0,10.0,95,0.00,,,0.00,Wunderground v.1.15,2013-03-11 04:01:00,
2013-03-10 23:02:00,32.0,30.7,29.72,NNE,32,6.0,10.0,95,0.00,,,0.00,Wunderground v.1.15,2013-03-11 04:02:00,
2013-03-10 23:03:00,32.0,30.7,29.72,NNE,13,5.0,10.0,95,0.00,,,0.00,Wunderground v.1.15,2013-03-11 04:03:00,
2013-03-10 23:07:00,31.9,30.6,29.72,NNE,18,6.0,8.0,95,0.00,,,0.00,Wunderground v.1.15,2013-03-11 04:07:00,
2013-03-10 23:08:00,31.9,30.6,29.72,ENE,69,6.0,8.0,95,0.00,,,0.00,Wunderground v.1.15,2013-03-11 04:08:00,
2013-03-10 23:09:00,31.9,30.6,29.72,NNE,20,6.0,8.0,95,0.00,,,0.00,Wunderground v.1.15,2013-03-11 04:09:00,
2013-03-10 23:11:00,31.9,30.6,29.72,NE,36,6.0,11.0,95,0.00,,,0.00,Wunderground v.1.15,2013-03-11 04:11:00,
2013-03-10 23:14:00,31.9,30.6,29.72,NE,34,7.0,13.0,95,0.00,,,0.00,Wunderground v.1.15,2013-03-11 04:14:00,
2013-03-10 23:15:00,31.8,30.5,29.72,NE,46,8.0,8.0,95,0.00,,,0.00,Wunderground v.1.15,2013-03-11 04:15:00,
2013-03-10 23:16:00,31.8,30.5,29.72,NE,38,7.0,8.0,95,0.00,,,0.00,Wunderground v.1.15,2013-03-11 04:16:00,
2013-03-10 23:17:00,31.8,31.0,29.72,NNE,16,4.0,-999.0,95,-99.99,,,0.00,weatherlink.com 1.10,2013-03-11 04:17:00,
2013-03-10 23:21:00,31.8,30.5,29.72,NNE,19,7.0,8.0,95,0.00,,,0.00,Wunderground v.1.15,2013-03-11 04:21:00,
2013-03-10 23:23:00,31.8,30.5,29.72,North,355,6.0,8.0,95,0.00,,,0.00,Wunderground v.1.15,2013-03-11 04:23:00,
2013-03-10 23:24:00,31.8,30.5,29.72,NNE,15,6.0,8.0,95,0.00,,,0.00,Wunderground v.1.15,2013-03-11 04:24:00,
2013-03-10 23:27:00,31.8,30.5,29.72,NW,322,5.0,22.0,95,0.00,,,0.00,Wunderground v.1.15,2013-03-11 04:27:00,
2013-03-10 23:30:00,31.8,30.5,29.73,NNE,23,3.0,22.0,95,0.00,,,0.00,Wunderground v.1.15,2013-03-11 04:30:00,
2013-03-10 23:33:00,31.8,31.0,29.73,NNE,18,6.0,-999.0,95,-99.99,,,0.00,weatherlink.com 1.10,2013-03-11 04:33:00,
2013-03-10 23:38:00,31.8,30.5,29.72,North,5,3.0,22.0,95,0.00,,,0.00,Wunderground v.1.15,2013-03-11 04:38:00,
2013-03-10 23:41:00,31.9,30.6,29.72,North,5,4.0,22.0,95,0.00,,,0.00,Wunderground v.1.15,2013-03-11 04:41:00,
2013-03-10 23:44:00,31.8,30.5,29.72,North,5,5.0,22.0,95,0.00,,,0.00,Wunderground v.1.15,2013-03-11 04:44:00,
2013-03-10 23:47:00,31.7,31.0,29.72,NE,36,7.0,-999.0,95,-99.99,,,0.00,weatherlink.com 1.10,2013-03-11 04:47:00,
2013-03-10 23:50:00,31.7,30.4,29.72,NE,34,5.0,22.0,95,0.00,,,0.00,Wunderground v.1.15,2013-03-11 04:50:00,
2013-03-10 23:52:00,31.7,30.4,29.72,NNW,347,5.0,22.0,95,0.00,,,0.00,Wunderground v.1.15,2013-03-11 04:52:00,
2013-03-10 23:56:00,31.7,30.4,29.72,NNW,329,5.0,5.0,95,0.00,,,0.00,Wunderground v.1.15,2013-03-11 04:56:00,
2013-03-10 23:57:00,31.7,30.4,29.72,NNE,28,5.0,9.0,95,0.00,,,0.00,Wunderground v.1.15,2013-03-11 04:57:00,
2013-03-10 23:59:00,31.7,30.4,29.72,NNE,14,5.0,9.0,95,0.00,,,0.00,Wunderground v.1.15,2013-03-11 04:59:00,